[{"header": {"dx": 0.06612293990616946, "dy": 0.0552356325346848, "nx": 98, "ny": 59, "la1": 35.046912555036876, "la2": 31.78801023549047, "lo1": -121.43107172385933, "lo2": -114.95102361305473, "refTime": "2026041615", "parameterCategory": 1, "parameterNumber": 2}, "data": [7.66, 7.2, 7.0, 6.6, 5.8, 5.0, 4.63, 4.0, 3.6, 3.42, 2.32, 1.73, 1.8, 1.8, 0.76, 0.0, -0.87, -3.58, -5.01, -6.64, -7.5, -7.6, -6.71, -6.2, -5.31, -4.85, -4.02, -3.58, -3.13, -2.68, -2.0, -1.26, -0.0, 1.58, 2.97, 4.47, 5.81, 6.07, 6.28, 6.28, 6.54, 7.12, 7.81, 9.2, 11.88, 14.49, 18.09, 20.09, 14.07, 6.2, 3.6, 5.09, 6.51, 6.94, 7.67, 8.67, 9.65, 10.23, 11.09, 11.62, 11.87, 11.61, 10.75, 10.25, 9.75, 10.01, 10.43, 10.95, 11.5, 12.14, 12.37, 11.45, 11.18, 10.68, 10.68, 10.25, 10.16, 7.6, 4.02, 1.58, -0.0, -0.0, -1.34, -1.0, 0.0, 0.0, 0.0, 1.9, 3.6, 5.75, 6.94, 7.42, 7.42, 8.0, 8.14, 7.11, 6.26, 6.21, 7.66, 7.2, 7.0, 6.56, 5.96, 5.17, 4.57, 4.42, 4.03, 3.4, 2.77, 2.29, 2.53, 3.16, 2.48, 1.6, 0.0, -1.27, -5.01, -5.82, -7.6, -7.74, -7.06, -6.71, -5.09, -4.66, -4.38, -4.02, -4.02, -3.9, -3.13, -2.24, -0.0, 1.26, 3.39, 4.92, 6.21, 6.98, 7.12, 6.8, 7.2, 8.15, 9.3, 11.14, 14.0, 16.2, 18.27, 13.49, 4.85, 1.6, 3.93, 5.21, 6.21, 6.32, 6.98, 8.67, 9.65, 10.63, 11.5, 11.62, 11.87, 11.45, 10.95, 10.01, 9.9, 10.15, 10.55, 11.09, 11.62, 12.56, 13.23, 11.87, 11.18, 10.45, 10.45, 10.93, 10.93, 7.6, 4.02, 1.58, -0.0, -0.0, -1.34, -1.0, 0.0, 0.0, 0.0, 1.9, 3.6, 5.75, 6.94, 7.42, 7.42, 8.0, 8.14, 7.11, 6.26, 6.21, 7.2, 7.2, 7.2, 7.03, 6.4, 5.8, 5.2, 4.6, 4.66, 3.56, 2.75, 2.16, 3.22, 3.35, 3.83, 3.6, 3.2, 0.99, -2.68, -5.59, -6.44, -7.6, -7.81, -7.21, -6.26, -4.85, -4.15, -3.95, -4.02, -3.83, -4.22, -3.22, -2.4, 1.34, 3.13, 5.81, 6.65, 7.63, 8.0, 8.06, 8.59, 10.15, 11.92, 14.54, 15.17, 14.93, 11.82, 5.75, 2.68, 4.54, 5.82, 6.08, 6.79, 7.06, 7.59, 8.67, 9.65, 10.8, 11.5, 11.62, 11.87, 11.21, 10.55, 9.84, 9.65, 10.28, 10.87, 11.75, 12.15, 12.7, 12.56, 11.87, 10.93, 9.7, 9.26, 10.16, 11.06, 8.94, 4.41, 2.24, 1.26, -0.0, -0.95, -1.74, -1.74, -1.49, 0.0, 1.2, 3.58, 6.8, 7.67, 7.81, 7.44, 6.8, 6.02, 5.36, 5.31, 6.2, 7.2, 7.2, 7.2, 7.0, 6.36, 6.43, 5.83, 5.23, 4.63, 4.0, 3.37, 2.75, 3.33, 3.22, 3.79, 3.84, 3.58, 4.0, 0.85, -3.48, -5.82, -6.64, -7.6, -8.0, -7.47, -6.71, -4.85, -4.02, -3.13, -2.84, -3.22, -3.9, -3.47, -1.55, 3.16, 5.36, 7.2, 8.93, 8.93, 9.4, 10.98, 12.56, 12.96, 12.45, 12.51, 11.75, 9.72, 8.8, 8.3, 8.55, 8.24, 8.05, 8.05, 8.06, 8.67, 9.27, 10.15, 10.68, 11.09, 11.45, 11.37, 11.09, 10.23, 9.67, 9.66, 10.29, 11.28, 11.37, 12.33, 12.5, 12.79, 12.04, 10.45, 8.38, 8.05, 8.49, 9.83, 9.8, 5.81, 1.26, 0.45, 0.89, -1.58, -2.53, -2.53, -1.9, 0.0, 1.98, 4.81, 7.44, 8.06, 7.44, 5.43, 3.47, 2.97, 4.15, 5.75, 6.26, 7.2, 7.2, 7.2, 7.0, 7.03, 6.4, 5.8, 5.4, 4.8, 3.97, 3.52, 2.89, 3.2, 3.72, 3.47, 4.01, 3.79, 4.22, 2.84, -0.87, -6.13, -7.21, -7.21, -8.17, -7.89, -7.63, -6.14, -4.24, -3.2, -1.13, -1.7, -2.51, -3.32, -1.6, 2.28, 4.8, 5.69, 8.91, 10.25, 10.32, 10.43, 10.51, 10.28, 10.95, 11.96, 12.05, 12.07, 11.6, 11.06, 10.25, 9.9, 9.49, 8.95, 8.63, 9.03, 9.6, 10.43, 10.85, 11.09, 11.45, 10.95, 10.15, 9.3, 9.66, 9.96, 10.63, 10.91, 10.91, 11.25, 12.52, 13.1, 12.86, 11.04, 10.01, 9.24, 7.6, 7.55, 7.15, 4.85, 0.0, -1.58, 0.0, -0.85, -2.84, -2.84, -0.99, 2.84, 4.81, 6.39, 8.06, 7.44, 5.21, 2.24, -0.0, 1.2, 3.9, 6.26, 6.71, 7.2, 7.2, 6.96, 7.2, 7.0, 6.36, 6.43, 5.83, 5.23, 4.6, 3.97, 3.35, 3.4, 3.72, 4.29, 3.9, 3.47, 3.35, 4.19, 0.0, -6.11, -8.06, -8.15, -7.6, -6.8, -6.28, -5.37, -4.02, -2.6, -1.3, 0.0, 0.0, 0.83, 0.81, 2.95, 3.76, 5.72, 8.37, 9.1, 7.12, 5.76, 7.27, 8.55, 11.4, 13.21, 13.67, 13.32, 11.6, 10.73, 10.16, 10.02, 9.97, 9.33, 8.82, 9.33, 10.25, 10.25, 10.25, 10.95, 11.87, 10.95, 9.6, 9.04, 9.27, 9.62, 10.24, 10.63, 10.29, 10.28, 11.9, 12.51, 12.51, 12.27, 12.47, 12.29, 10.45, 7.6, 5.36, 4.85, 0.0, -0.87, 0.0, 0.0, -0.88, -0.96, 0.0, 4.16, 7.06, 8.06, 7.07, 5.21, 2.97, 0.89, -0.0, 1.26, 4.02, 6.26, 6.21, 7.2, 7.2, 6.96, 6.96, 7.2, 7.03, 6.4, 5.8, 5.2, 4.57, 4.16, 3.52, 3.91, 4.29, 4.74, 4.01, 3.47, 3.47, 4.29, 3.35, -1.6, -5.77, -7.02, -6.18, -4.44, -3.52, -3.7, -2.28, -3.35, -2.64, -1.3, 0.87, 3.48, 5.37, 5.38, 4.4, 4.8, 6.98, 5.06, 2.6, 3.8, 4.88, 6.98, 10.41, 12.21, 11.18, 10.25, 9.39, 8.49, 9.39, 9.33, 8.8, 9.06, 9.06, 9.11, 9.97, 10.02, 10.45, 10.93, 11.66, 10.43, 9.03, 8.68, 8.65, 9.0, 10.28, 11.28, 10.28, 10.23, 11.34, 12.29, 11.75, 11.88, 13.49, 13.99, 13.49, 10.75, 7.42, 6.98, 8.49, 0.88, 0.82, 0.82, 0.0, 0.0, 2.18, 4.83, 6.95, 7.06, 4.84, 0.95, -0.89, -1.26, -0.95, 1.79, 4.47, 6.2, 5.75, 7.2, 7.2, 6.96, 6.96, 7.2, 7.0, 6.36, 6.22, 5.83, 5.0, 4.12, 3.49, 3.6, 4.42, 5.59, 4.46, 4.43, 5.06, 5.06, 4.81, 4.02, 2.24, 0.0, -2.4, -3.4, -2.33, -2.28, -4.6, -5.72, -4.96, -2.4, 0.0, 2.69, 5.72, 6.95, 5.94, 4.71, 4.29, 3.58, 0.0, 1.3, 4.96, 6.71, 7.9, 7.07, 5.81, 5.75, 6.98, 7.55, 7.52, 7.11, 7.89, 8.36, 9.06, 9.26, 9.7, 10.16, 10.6, 10.62, 10.93, 10.25, 8.95, 8.63, 8.06, 8.03, 9.67, 11.75, 11.37, 10.25, 11.36, 12.09, 12.09, 12.42, 12.49, 12.86, 12.66, 12.37, 10.85, 10.93, 12.49, 9.28, 2.12, 1.45, 1.55, 2.18, 3.51, 4.87, 6.01, 5.46, 1.79, -1.6, -2.12, -1.58, -0.0, 3.13, 5.36, 6.2, 5.75, 7.2, 7.2, 6.96, 7.16, 6.96, 7.0, 6.56, 6.4, 5.8, 5.2, 4.57, 3.61, 3.45, 3.32, 4.26, 4.95, 5.37, 5.37, 5.43, 4.89, 4.47, 3.82, 3.6, 2.68, 0.0, -1.27, -2.32, -5.72, -6.98, -3.7, 0.0, 1.18, 2.23, 3.52, 5.06, 5.15, 5.01, 3.2, -0.0, -0.0, 1.79, 3.79, 7.07, 6.7, 5.2, 3.47, 4.24, 5.6, 6.16, 5.82, 6.79, 6.7, 7.63, 8.33, 8.8, 9.7, 10.16, 10.7, 10.6, 10.6, 9.54, 8.3, 6.82, 6.79, 7.06, 9.03, 11.87, 12.09, 10.6, 10.6, 11.96, 12.5, 13.41, 12.52, 12.07, 11.62, 11.6, 11.96, 12.87, 14.23, 12.49, 3.64, 1.52, 2.26, 2.9, 3.79, 5.06, 5.82, 3.74, 0.95, -0.8, -1.0, -0.8, 1.34, 4.47, 6.21, 6.21, 5.29, 7.2, 7.2, 6.96, 6.96, 6.96, 7.2, 7.0, 6.6, 5.77, 5.83, 5.2, 4.54, 4.63, 3.94, 3.36, 4.2, 4.2, 4.2, 3.35, 2.26, 1.3, 1.4, 2.68, 2.8, -0.0, -2.24, -3.72, -4.43, -5.03, -1.14, 0.0, 0.0, 0.0, 1.79, 2.68, 4.47, 4.92, 2.53, 1.27, 1.8, 2.0, 3.47, 4.8, 5.2, 5.29, 4.92, 3.95, 4.57, 5.21, 5.82, 5.77, 6.82, 7.63, 7.89, 8.46, 9.36, 9.83, 10.28, 10.28, 9.36, 7.71, 5.43, 5.69, 5.69, 6.79, 8.95, 11.18, 11.71, 10.63, 10.73, 12.07, 12.94, 13.34, 12.88, 12.43, 11.99, 11.4, 11.36, 11.53, 12.96, 13.84, 8.01, 0.0, 0.73, 2.07, 2.41, 3.84, 4.0, 2.68, 1.6, 0.95, 0.89, 1.34, 1.9, 5.09, 6.51, 6.51, 3.47, 7.2, 7.2, 6.96, 6.96, 6.96, 7.2, 7.0, 6.36, 6.43, 5.8, 5.17, 5.4, 5.67, 5.26, 4.25, 4.07, 4.25, 3.94, 3.32, 2.21, 0.84, 0.0, 0.0, -0.0, -0.0, -2.68, -2.68, -2.24, 2.24, 0.0, 0.0, -1.79, -1.2, -0.99, -0.0, 3.58, 4.24, 2.48, 1.74, 2.21, 2.0, 1.79, 2.54, 3.72, 4.8, 4.38, 4.02, 4.57, 4.84, 5.15, 5.77, 7.42, 7.89, 8.14, 8.36, 9.36, 10.28, 9.81, 8.8, 6.21, 4.01, 3.4, 3.91, 5.1, 6.32, 8.43, 10.01, 10.68, 10.25, 10.16, 11.18, 12.01, 12.44, 11.52, 11.52, 11.58, 10.79, 9.6, 10.0, 11.09, 12.66, 10.26, 2.8, -0.71, 0.0, 0.8, 2.23, 2.8, 2.68, 1.79, 1.79, 1.9, 1.74, 2.68, 4.11, 6.4, 5.09, 0.95, 7.2, 7.2, 7.2, 6.96, 6.96, 7.2, 7.0, 7.03, 6.4, 6.22, 5.8, 5.83, 6.29, 6.31, 6.35, 5.09, 5.09, 5.06, 4.4, 2.83, 1.14, 0.0, -0.89, -2.4, -1.9, -1.9, -1.58, -0.0, -0.0, -0.0, -2.24, -1.26, -2.4, -1.9, -1.26, 0.89, 1.26, 1.0, -0.0, -0.0, -0.0, -1.0, -0.0, 0.0, 1.6, 2.21, 3.2, 4.92, 5.64, 6.14, 6.02, 6.79, 8.14, 8.63, 8.8, 9.26, 10.25, 8.94, 4.66, -0.0, -0.0, 2.35, 3.32, 3.15, 4.0, 6.53, 8.65, 9.65, 9.54, 8.9, 8.48, 8.8, 8.93, 9.03, 9.49, 10.01, 9.49, 8.63, 8.49, 9.14, 9.6, 9.26, 6.51, -1.0, 0.0, 0.95, 1.9, 2.23, 2.12, 2.24, 1.79, 0.8, 0.71, 1.66, 4.29, 5.46, 2.24, -1.9, 7.2, 7.2, 7.2, 7.2, 6.96, 7.2, 7.2, 7.0, 6.6, 6.43, 6.46, 6.5, 6.27, 6.94, 7.33, 7.27, 6.67, 6.08, 5.46, 4.44, 2.16, 0.54, -0.45, -1.2, -1.7, -1.2, -0.63, -0.6, -0.0, -0.95, -1.79, -1.34, -2.0, -2.54, -2.24, -1.79, -0.89, 0.89, -1.26, -1.74, -2.41, -2.84, -2.21, -0.95, 0.0, 0.0, 2.4, 3.49, 5.01, 6.23, 5.16, 5.75, 7.11, 7.15, 8.05, 7.5, 8.17, 8.17, 2.68, -2.76, -0.77, 1.6, 1.52, 0.77, 1.52, 3.32, 6.05, 7.9, 7.68, 7.03, 6.07, 4.85, 4.22, 4.6, 5.75, 6.79, 6.94, 5.75, 6.13, 6.25, 5.43, 6.7, 7.98, 7.03, 1.0, 1.9, 1.74, 1.9, 2.12, 2.68, 2.24, 0.89, 0.0, 1.6, 4.11, 3.2, -0.0, -2.6, 7.2, 7.2, 7.2, 7.2, 7.2, 7.2, 7.2, 7.0, 7.03, 6.85, 6.43, 6.25, 6.5, 6.94, 7.6, 8.24, 7.9, 7.27, 6.08, 5.09, 4.47, 2.86, 1.26, 0.45, -1.2, -1.2, -0.8, -0.63, -0.89, -0.89, -0.89, -1.34, -1.79, -1.79, -1.6, -1.6, -1.26, -1.34, -1.58, -2.41, -3.16, -2.84, -2.53, -1.2, 1.34, 0.0, 1.7, 2.49, 3.68, 5.01, 4.8, 5.6, 4.8, 4.02, 3.58, 2.54, 4.02, 8.49, 6.71, -1.7, -3.27, -0.0, -0.0, -0.0, -0.0, 0.83, 2.26, 4.22, 6.01, 6.64, 6.64, 3.16, -0.0, -0.0, 2.0, 2.97, 2.97, 2.68, 2.68, 2.24, 2.0, 4.19, 7.28, 7.85, 4.46, 3.16, 2.53, 1.9, 2.0, 2.68, 2.68, 1.79, 1.34, 1.9, 1.9, -0.0, -2.21, -2.6, 7.0, 7.2, 7.66, 7.66, 7.66, 7.66, 7.2, 7.0, 7.03, 7.06, 6.88, 6.9, 6.92, 7.19, 7.96, 8.58, 8.85, 7.9, 7.27, 6.34, 5.71, 5.06, 3.73, 1.26, 0.45, -0.8, -0.63, -0.63, -0.45, -0.45, -0.32, 0.45, 1.34, 1.34, 1.34, 0.0, 0.0, 0.89, -2.53, -3.16, -3.48, -3.48, -2.84, -2.53, -1.6, -2.24, 0.0, 1.4, 2.53, 2.8, 3.58, 3.58, 1.58, -0.0, -0.0, -0.0, 1.9, 6.79, 8.01, 1.32, -3.33, -2.8, -1.41, -1.3, -0.0, -0.0, 1.27, 2.48, 3.79, 5.37, 6.39, 4.43, -0.0, -1.0, -0.0, 0.99, -0.0, -0.0, -0.0, 0.45, 0.89, 2.53, 5.05, 5.86, 4.24, 3.48, 2.98, 2.4, 1.6, 2.68, 3.13, 2.54, 2.0, 0.95, 0.89, -2.6, -2.97, -2.97, 7.0, 7.66, 7.66, 7.66, 7.66, 7.66, 7.2, 7.2, 7.0, 7.03, 7.1, 7.13, 7.16, 7.32, 8.23, 8.59, 9.19, 8.85, 7.9, 6.67, 6.64, 6.59, 5.65, 3.43, 0.63, 0.0, -0.63, -0.0, 0.45, -0.45, -0.63, 0.0, 0.0, 0.89, 1.34, 1.26, 0.0, -0.95, -3.16, -4.65, -3.48, -3.16, -3.16, -3.16, -3.72, -3.72, -3.6, -2.8, -1.9, -0.0, -0.0, -0.0, -0.0, -0.0, -0.0, -0.0, 3.13, 4.92, 5.2, -0.0, -1.8, -3.16, -2.84, -1.6, -1.4, -0.0, 0.89, 1.9, 2.98, 5.01, 4.8, 3.2, 0.0, -1.34, 0.45, -0.0, -0.0, -0.8, -2.24, -2.24, -0.89, 0.89, 2.97, 3.95, 2.68, 0.95, 1.79, 2.0, 2.24, 2.68, 3.47, 1.58, 0.0, 0.45, -0.95, -2.6, -3.47, -3.47, 7.0, 7.66, 7.66, 7.66, 7.66, 7.66, 7.66, 7.66, 7.45, 7.48, 7.5, 6.88, 7.31, 7.57, 8.23, 8.87, 9.5, 9.17, 8.53, 7.3, 7.27, 7.23, 6.87, 5.01, 2.98, 1.79, 0.8, 0.63, -0.0, -0.89, -1.34, -1.34, -0.89, 1.34, 0.45, 0.89, -1.34, -3.72, -4.11, -4.11, -3.48, -2.84, -4.09, -3.22, -3.72, -3.72, -3.72, -3.72, -3.72, -2.84, -2.84, -2.8, -1.9, -0.0, -0.0, 1.58, 3.2, 2.84, -0.0, -0.0, -3.2, -3.82, -3.6, -2.53, -1.6, -0.0, -0.0, 1.79, 2.8, 5.81, 4.02, 0.0, -2.53, -1.6, -1.26, -0.0, -0.0, -0.0, -0.71, -1.9, -1.9, -0.95, 0.89, 2.24, 2.24, 0.89, -0.0, 2.24, 2.97, 4.15, 3.45, 1.74, 0.71, 0.0, 0.89, -2.54, -2.8, -2.8, 7.0, 7.66, 7.66, 7.66, 7.66, 7.66, 7.66, 7.66, 7.45, 7.7, 7.5, 7.53, 7.55, 7.57, 8.23, 8.87, 9.5, 9.5, 8.87, 8.22, 7.86, 7.81, 7.17, 6.15, 5.08, 3.98, 2.68, 1.79, 0.0, -1.79, -2.17, -2.63, -2.63, -2.6, -2.17, -3.2, -4.22, -5.81, -5.2, -4.09, -4.24, -3.82, -4.24, -3.82, -3.82, -3.82, -3.82, -3.72, -3.72, -2.84, -2.53, -1.4, -2.21, -0.0, -0.0, -0.0, 2.21, 2.21, 1.79, -2.68, -3.58, -3.58, -3.2, -2.84, -2.48, -1.6, -0.0, 1.34, 2.98, 6.13, 2.21, -1.58, -2.21, -1.49, -1.79, -1.6, -0.0, 1.6, 1.84, 0.88, -0.0, -0.0, -0.0, 1.79, 0.95, 1.0, 2.41, 2.54, 3.58, 4.54, 3.84, 2.84, 1.4, 0.76, 0.0, -1.79, -2.54, -2.54, 7.0, 7.66, 7.66, 7.66, 7.66, 7.66, 7.66, 7.66, 7.66, 7.7, 7.73, 7.76, 7.8, 7.95, 8.22, 9.31, 8.87, 9.5, 8.87, 8.5, 8.45, 8.73, 7.51, 6.39, 5.15, 4.8, 2.91, 2.0, 0.89, -2.17, -2.97, -3.82, -4.11, -4.6, -4.9, -5.4, -5.81, -5.7, -5.81, -5.36, -4.47, -4.02, -4.47, -4.02, -4.02, -3.82, -3.82, -4.24, -3.35, -2.84, -2.53, -1.6, -1.6, -1.6, -0.0, -0.0, -0.0, 2.24, 1.34, -2.68, -3.13, -2.8, -2.53, -1.8, -2.3, -2.0, -0.99, 2.24, 5.75, 7.74, 8.05, 7.89, 8.8, 8.01, 5.75, 3.6, 2.6, 3.22, 4.11, 3.63, 0.85, -0.0, 0.45, 0.6, 0.85, 1.66, 2.47, 3.79, 5.06, 3.9, 3.63, 3.48, 2.53, 1.49, 0.0, -1.26, -2.24, -2.24, 7.45, 7.45, 7.66, 7.66, 7.66, 7.66, 7.66, 7.66, 7.66, 7.7, 7.48, 7.5, 8.18, 8.2, 8.2, 8.59, 8.87, 7.96, 7.9, 7.82, 8.93, 9.02, 8.19, 6.53, 4.56, 3.22, 2.68, 0.65, -0.6, -2.24, -2.91, -3.82, -4.11, -4.6, -5.51, -5.57, -5.99, -5.7, -5.34, -4.92, -4.92, -4.44, -3.98, -3.98, -3.53, -4.24, -4.24, -4.24, -3.82, -2.84, -2.84, -2.84, -1.27, -1.27, -0.87, -0.0, -0.0, -0.0, 0.45, -2.24, -2.68, -3.2, -3.16, -2.73, -1.66, -0.98, -0.0, 1.9, 5.75, 8.8, 11.18, 14.21, 17.15, 17.36, 15.2, 11.84, 8.55, 5.82, 4.92, 4.38, 2.54, 0.89, 0.45, 0.0, 0.0, 1.74, 2.15, 2.41, 4.36, 2.88, 2.6, 3.22, 3.22, 1.55, 0.0, -1.2, -1.79, -1.79, 7.7, 7.7, 7.45, 7.66, 7.66, 7.66, 7.66, 7.66, 7.66, 7.7, 8.14, 8.16, 8.18, 8.46, 8.85, 8.86, 9.21, 8.23, 6.96, 6.87, 7.73, 8.24, 8.24, 6.98, 5.1, 3.45, 1.57, 0.59, -0.57, -1.79, -2.63, -3.39, -3.87, -4.6, -5.09, -5.09, -5.7, -5.7, -5.24, -5.24, -5.24, -4.8, -4.77, -4.34, -3.82, -4.34, -4.24, -4.24, -3.82, -3.35, -2.84, -3.16, -2.48, -1.41, -1.41, -0.0, -0.0, 0.89, -1.79, -2.24, -2.24, -1.6, -2.48, -2.48, -1.98, -0.99, -0.0, 1.13, 4.11, 6.7, 9.3, 12.39, 15.18, 15.2, 13.96, 11.83, 7.36, 6.31, 5.24, 4.6, 2.97, 0.89, 0.89, 0.45, 0.0, 0.45, 0.45, 0.89, 2.54, 2.84, 3.22, 3.11, 2.3, 0.0, -1.49, -2.23, -1.79, -1.79, 7.7, 7.7, 7.7, 7.66, 7.66, 7.66, 7.66, 7.66, 7.92, 8.37, 8.14, 8.4, 8.16, 8.57, 8.85, 9.22, 9.21, 8.59, 7.59, 7.6, 7.61, 7.61, 7.33, 7.33, 6.35, 4.73, 2.82, 1.11, 0.0, -1.2, -2.24, -3.07, -3.53, -4.3, -4.77, -5.24, -5.24, -5.09, -5.09, -5.09, -5.09, -4.9, -4.8, -4.4, -4.11, -3.6, -4.4, -3.72, -3.72, -2.84, -2.84, -3.16, -2.48, -1.41, -1.41, -1.19, -0.79, -1.0, -1.79, 0.0, -0.0, -0.87, -1.66, -1.6, -0.99, -0.99, -0.0, -0.0, 1.55, 2.26, 4.44, 9.08, 9.84, 5.31, 4.16, 6.36, 6.48, 6.27, 5.0, 3.69, 1.8, 0.0, -0.89, -0.95, -0.0, -1.26, -1.79, -0.95, 1.58, 4.22, 4.46, 2.79, 0.45, -1.9, -2.6, -2.68, -2.24, -2.24, 7.7, 7.7, 7.7, 7.66, 7.66, 7.66, 8.11, 8.11, 8.37, 8.37, 8.37, 8.14, 8.81, 8.83, 9.21, 9.49, 9.5, 8.59, 8.23, 7.96, 7.96, 7.61, 7.61, 6.7, 6.33, 5.72, 4.08, 2.4, 0.61, -0.6, -1.79, -2.68, -3.09, -3.98, -4.34, -4.77, -5.24, -5.09, -5.09, -4.8, -4.8, -4.55, -4.93, -4.93, -4.55, -4.0, -4.29, -3.48, -3.16, -2.84, -2.84, -3.16, -2.48, -2.73, -2.2, -1.3, -1.7, -0.98, -0.0, 0.89, 0.89, -0.0, -0.0, -0.0, -0.0, -0.0, -0.0, -0.0, -0.0, -0.0, -0.0, 3.72, -0.0, -3.82, 0.0, 2.26, 3.39, 4.94, 5.8, 4.12, 0.7, -1.0, -1.79, -1.79, -1.79, -2.24, -2.24, -1.6, 0.0, 1.26, 2.84, 0.45, -1.74, -2.15, -2.6, -2.24, -1.79, -1.79, 7.7, 7.7, 7.7, 7.7, 7.66, 8.11, 8.11, 8.11, 8.37, 8.37, 8.37, 8.37, 8.81, 8.81, 9.48, 9.77, 9.49, 9.21, 8.59, 8.59, 8.87, 8.56, 7.61, 6.97, 6.31, 5.95, 5.09, 3.45, 1.8, 0.0, -1.26, -2.24, -2.68, -3.58, -3.98, -4.34, -4.77, -4.6, -4.6, -4.4, -4.8, -4.55, -4.65, -4.65, -4.37, -4.65, -5.01, -4.11, -2.4, -2.73, -2.48, -3.16, -2.48, -2.73, -2.98, -2.6, -2.4, -1.7, -0.0, 1.4, 0.8, -0.0, -0.0, -0.0, -0.0, -0.0, -0.0, -0.0, -0.0, -0.0, 0.89, 7.2, 2.6, -2.68, -3.58, -1.27, 1.18, 3.25, 4.48, 4.2, 1.41, -1.34, -2.68, -2.24, -2.68, -3.13, -2.24, -1.34, -0.89, -1.79, -1.34, -2.6, -2.53, -2.21, -2.54, -1.79, -1.34, -1.34, 7.7, 7.7, 7.7, 7.92, 7.66, 7.66, 8.11, 8.11, 8.37, 8.37, 8.37, 8.79, 8.79, 9.2, 9.48, 9.84, 9.84, 9.5, 8.86, 8.59, 8.87, 8.87, 8.24, 6.97, 6.33, 5.92, 5.32, 4.08, 2.4, 0.61, 0.0, -1.26, -2.17, -2.68, -3.58, -3.98, -4.3, -4.34, -4.6, -4.4, -4.4, -4.0, -4.07, -4.07, -4.37, -4.37, -4.07, -3.2, -2.86, -2.2, -1.76, -2.2, -2.73, -3.48, -3.79, -3.22, -3.49, -3.35, -1.55, -0.0, 2.48, -0.0, -0.99, -0.0, -0.0, -0.0, -0.0, 0.87, 0.99, 1.79, 4.54, 8.0, 9.76, 5.81, 2.24, -1.34, 0.0, 0.81, 3.17, 2.51, 1.0, -2.21, -2.8, -2.68, -3.13, -3.13, -1.79, -0.89, -1.34, -2.24, -3.13, -2.23, -1.0, -1.2, -1.6, -1.34, -1.34, -1.34, 7.7, 7.7, 7.7, 7.92, 7.66, 8.11, 8.11, 8.11, 8.37, 8.37, 8.37, 8.79, 8.79, 9.47, 9.75, 9.84, 10.13, 9.49, 9.14, 8.86, 9.21, 9.21, 8.58, 7.61, 6.33, 5.92, 5.7, 4.69, 3.47, 1.8, 0.65, 0.0, -1.26, -2.17, -2.68, -3.09, -3.39, -3.87, -4.11, -3.88, -4.27, -4.0, -4.0, -3.48, -3.79, -3.49, -3.49, -2.84, -2.84, -2.4, -1.7, -1.73, -2.6, -3.49, -3.49, -3.49, -4.11, -4.11, -2.73, -0.0, 1.55, 1.19, -0.0, -0.0, -0.0, -0.0, 0.79, 0.79, 1.2, 1.79, 3.6, 7.63, 9.72, 12.07, 11.06, 7.71, 3.13, 0.79, 0.81, 0.0, -1.79, -3.22, -3.58, -3.2, -3.47, -2.68, -1.34, 0.89, -1.26, -2.12, -3.13, -1.79, -0.0, -0.0, -0.0, 0.45, 0.89, 0.89, 7.7, 7.7, 7.7, 7.92, 7.66, 8.11, 8.11, 8.11, 8.37, 8.37, 8.37, 8.79, 8.79, 9.47, 9.47, 10.13, 9.84, 9.49, 9.22, 9.22, 9.5, 9.21, 8.59, 7.96, 6.97, 6.33, 5.69, 5.08, 4.08, 2.84, 1.6, 1.6, 0.65, 0.0, -0.6, -1.79, -2.24, -2.4, -2.68, -2.79, -2.84, -2.84, -2.84, -2.86, -3.15, -2.86, -2.84, -2.84, -2.4, -1.88, -1.55, -1.16, -1.73, -2.44, -3.35, -3.35, -4.11, -3.79, -3.48, -2.68, -1.55, -0.0, -0.0, -0.0, -0.0, -0.0, 0.98, 1.9, 2.0, 2.68, 4.0, 5.82, 8.63, 10.25, 10.93, 11.18, 8.05, 0.87, -1.6, -1.74, -2.68, -3.83, -4.46, -4.46, -3.74, -2.12, -1.34, -1.26, -1.49, -2.53, -2.6, -2.0, -0.89, 0.45, 0.89, 0.89, 0.89, 0.89, 7.7, 7.7, 7.7, 7.92, 7.66, 8.11, 8.11, 8.11, 8.11, 8.37, 8.79, 8.79, 8.79, 9.45, 9.84, 10.13, 9.84, 9.84, 9.49, 9.22, 9.22, 9.5, 8.87, 8.24, 7.61, 6.71, 6.33, 6.34, 5.72, 4.73, 3.22, 2.22, 1.84, 1.2, 0.0, -0.63, -1.34, -2.12, -2.4, -2.21, -2.23, -2.23, -1.8, -1.8, -1.8, -1.8, -2.44, -2.84, -2.4, -1.73, -1.19, -1.07, -1.07, -1.73, -2.44, -3.35, -3.79, -3.79, -3.35, -3.35, -2.76, -0.96, -0.0, -0.0, -0.0, -0.0, 1.98, 1.79, 2.0, 2.97, 4.82, 6.7, 7.89, 7.42, 8.14, 9.54, 7.63, 0.0, -2.6, -0.8, -1.79, -2.91, -4.4, -5.05, -3.83, -2.23, -2.54, -3.2, -2.41, -1.8, -1.98, -1.58, -1.34, 0.45, 0.45, 1.34, 1.34, 1.34, 7.7, 7.7, 7.7, 7.92, 7.92, 8.11, 8.11, 8.11, 8.11, 8.79, 8.79, 8.79, 9.04, 9.45, 9.73, 9.84, 10.13, 9.84, 9.49, 9.49, 9.49, 9.5, 8.86, 8.23, 7.6, 7.6, 6.97, 6.71, 6.08, 5.09, 4.1, 3.22, 2.48, 1.84, 1.2, 0.0, -0.63, -1.34, -1.26, -1.9, -1.61, -1.8, -1.76, -1.7, -0.81, -1.23, -1.73, -2.4, -1.73, -1.73, -1.19, -1.07, -0.54, -1.07, -1.73, -2.6, -5.01, -4.43, -4.11, -4.43, -4.11, -2.68, -1.13, -0.0, -0.0, 0.82, 1.83, 1.79, 1.2, 1.2, 4.38, 7.55, 9.26, 9.03, 8.53, 8.46, 4.83, -0.87, -1.9, 0.0, 1.26, 0.45, -3.07, -4.4, -4.46, -3.84, -4.46, -5.51, -4.15, -2.98, -1.74, -1.0, -0.0, 0.89, 0.45, 0.89, 1.34, 1.34, 7.7, 7.7, 7.7, 7.7, 7.92, 8.37, 8.37, 8.37, 8.37, 9.04, 8.79, 8.79, 9.04, 9.45, 9.73, 10.11, 10.13, 9.84, 9.48, 9.49, 9.49, 9.22, 8.86, 8.59, 8.23, 8.24, 7.33, 6.97, 6.7, 6.0, 5.1, 3.84, 3.2, 2.23, 1.61, 1.24, 0.0, 0.45, -0.95, -1.24, -1.2, -1.13, -1.11, -1.08, -1.19, -0.82, -0.82, -1.07, -1.19, -1.08, -1.08, -0.61, -0.54, -0.61, -0.55, -1.76, -3.48, -4.65, -5.15, -5.21, -5.2, -3.6, -1.9, -1.98, -1.84, -0.0, 0.82, 2.48, 1.79, 1.2, 2.97, 6.26, 10.25, 12.05, 12.23, 11.52, 8.3, 1.8, -1.2, 0.0, 2.84, 1.9, 0.0, -2.63, -4.8, -5.69, -6.54, -6.07, -4.87, -3.51, -2.6, -1.9, -0.0, -0.0, 0.95, 1.6, 2.23, 2.23, 7.7, 7.7, 7.7, 7.7, 7.7, 8.37, 8.37, 8.37, 8.79, 9.04, 9.04, 8.79, 9.04, 9.45, 9.45, 10.11, 10.13, 10.13, 9.84, 9.48, 9.49, 9.49, 8.85, 8.86, 8.87, 7.96, 7.6, 7.33, 6.98, 6.69, 6.34, 5.08, 4.12, 3.2, 2.51, 1.88, 0.99, 0.0, 0.45, -0.6, -0.54, -0.61, -0.59, -1.23, -1.19, -0.88, -0.88, -0.55, -0.55, -0.63, -0.63, -0.55, -0.55, -0.61, -0.55, -0.55, -1.76, -4.07, -5.08, -5.75, -5.09, -3.9, -2.97, -2.53, -2.76, -2.4, -0.96, 1.41, 4.24, 4.02, 2.24, 2.97, 6.7, 12.58, 14.75, 13.35, 11.5, 8.0, 3.22, 0.99, 1.6, 2.15, 2.4, 0.89, -1.7, -4.11, -5.31, -6.07, -5.16, -4.24, -3.45, -2.53, -0.85, 0.71, 1.58, 2.6, 2.53, 2.53, 7.7, 7.7, 7.7, 7.7, 7.7, 8.37, 8.37, 8.37, 8.79, 9.04, 9.04, 9.04, 8.79, 9.45, 9.45, 10.11, 9.84, 10.13, 9.84, 9.84, 9.48, 9.49, 8.85, 8.86, 8.59, 8.23, 7.96, 7.33, 7.82, 6.97, 6.97, 6.04, 5.08, 3.83, 2.86, 2.23, 1.9, 1.2, 0.45, -0.0, -0.0, -0.0, -0.0, -0.0, -0.57, -0.57, -0.0, -0.0, -0.0, -0.0, -0.57, -0.57, -0.57, -0.57, -0.57, -0.0, -0.63, -1.76, -3.73, -4.8, -4.66, -3.9, -2.84, -2.3, -2.76, -3.35, -2.0, -0.0, 3.2, 4.66, 2.21, -0.0, 3.58, 10.66, 15.57, 13.32, 8.06, 5.06, 4.15, 2.97, 1.58, 2.54, 3.58, 3.58, 3.13, 0.89, -1.7, -3.07, -4.22, -3.83, -3.16, -2.84, -1.74, -0.0, 1.74, 2.21, 2.15, 2.15, 7.7, 7.7, 7.7, 7.7, 8.14, 8.37, 8.37, 8.37, 8.79, 9.04, 9.04, 9.04, 9.04, 9.04, 9.45, 10.11, 10.11, 10.13, 10.13, 9.84, 9.48, 9.49, 8.85, 8.85, 8.86, 8.87, 8.24, 7.61, 6.98, 7.08, 6.97, 6.35, 5.71, 4.75, 3.79, 3.16, 2.53, 1.86, 1.34, 1.2, 0.8, 0.54, 0.53, -0.0, -0.0, -0.0, -0.0, -0.0, -0.0, -0.0, -0.0, -0.57, -0.57, -0.0, -0.0, -0.0, -0.0, -0.0, -1.11, -2.86, -3.43, -1.8, -2.73, -2.53, -2.99, -3.63, -2.53, -1.98, -0.0, 2.84, 2.84, 1.58, 2.97, 7.89, 15.12, 14.75, 5.16, 0.0, 2.24, 4.85, 5.77, 5.81, 6.26, 6.26, 5.81, 4.92, 3.13, -0.0, -2.21, -2.84, -2.84, -2.15, -1.74, -0.0, 0.99, 1.98, 1.6, 1.6, 7.7, 7.7, 7.7, 7.7, 8.14, 8.37, 8.37, 8.79, 8.79, 9.04, 9.04, 9.04, 9.04, 9.45, 9.45, 10.11, 9.84, 10.13, 10.13, 9.84, 9.48, 9.49, 8.85, 8.85, 8.86, 8.87, 8.24, 7.96, 7.95, 7.3, 6.97, 6.35, 6.32, 5.69, 4.74, 4.07, 3.43, 2.68, 2.6, 2.24, 1.86, 1.9, 1.2, 1.16, 0.59, 0.59, 0.51, 0.61, -0.0, -0.0, -0.0, -0.0, -0.0, -0.0, -0.0, -0.0, -0.0, -0.0, -0.0, -0.63, -2.6, -2.4, -2.4, -2.4, -2.53, -2.53, -2.95, -1.8, -0.0, 1.8, 2.68, 3.48, 5.81, 9.03, 14.17, 15.57, 11.52, 7.21, 6.94, 8.24, 9.36, 9.39, 8.94, 8.49, 8.05, 6.26, 5.36, 3.07, 0.8, -0.85, -1.74, -1.74, -1.49, -0.0, -0.0, 1.6, 1.6, 1.6, 7.48, 7.48, 7.7, 7.7, 8.14, 8.37, 8.37, 8.79, 9.04, 9.04, 9.04, 9.04, 9.04, 9.45, 9.45, 9.47, 9.84, 10.13, 10.13, 9.84, 9.48, 9.49, 8.85, 8.58, 8.86, 8.87, 8.59, 8.58, 8.56, 7.93, 7.27, 6.95, 6.92, 6.28, 5.65, 4.94, 4.55, 4.11, 3.53, 3.13, 2.63, 2.5, 2.21, 2.53, 1.84, 1.84, 1.16, 1.16, 0.65, -0.0, -0.0, -0.0, -0.0, -0.0, -0.0, -0.0, -0.0, -0.0, -0.0, -0.61, -2.4, -3.76, -2.6, -2.6, -2.98, -2.73, -2.68, -1.8, -1.13, -0.0, 1.8, 3.79, 8.05, 11.51, 13.92, 14.73, 14.57, 13.49, 12.98, 12.74, 11.62, 10.26, 9.28, 8.38, 7.12, 5.81, 4.92, 4.47, 2.54, -0.0, -1.2, -0.85, -1.2, -0.0, -0.0, 1.58, 1.6, 1.6, 7.03, 7.03, 7.7, 7.7, 8.14, 8.37, 8.37, 8.79, 9.04, 9.04, 9.04, 9.04, 9.45, 9.19, 9.47, 9.47, 9.84, 10.13, 10.13, 9.84, 9.49, 9.22, 8.58, 8.86, 8.86, 8.87, 8.87, 8.87, 8.87, 8.53, 7.9, 7.55, 6.92, 6.87, 6.23, 5.86, 5.37, 4.9, 4.34, 4.02, 3.53, 3.39, 3.2, 2.79, 2.53, 2.23, 2.53, 1.88, 1.2, 0.53, -0.0, -0.0, -0.0, -0.0, -0.0, -0.0, -0.0, 0.55, 0.55, -0.0, -1.16, -2.86, -3.49, -2.76, -2.68, -2.48, -1.8, -1.8, -0.98, -0.0, -0.0, 2.95, 8.17, 11.96, 13.41, 13.39, 13.41, 14.11, 14.67, 13.84, 12.07, 9.36, 7.45, 6.07, 5.31, 5.36, 4.85, 4.38, 3.47, 1.9, 1.0, -0.0, -0.0, -0.0, 1.58, 2.23, 1.74, 1.74, 7.03, 7.03, 7.7, 7.7, 8.14, 8.37, 8.37, 8.79, 8.79, 9.04, 9.04, 9.04, 9.19, 9.47, 9.47, 9.47, 9.47, 10.13, 10.13, 9.84, 9.49, 8.85, 8.86, 8.59, 8.87, 8.87, 9.21, 9.5, 9.19, 8.56, 8.22, 7.86, 7.51, 7.44, 6.79, 6.7, 6.28, 5.81, 5.24, 4.47, 4.02, 3.98, 3.7, 4.6, 3.72, 3.35, 2.79, 2.53, 1.88, 1.16, 0.59, 0.59, 0.57, 0.57, 0.57, 0.63, 0.63, 0.63, 0.55, -0.0, -0.54, -1.73, -2.6, -2.53, -2.0, -1.55, -1.66, -0.96, -0.88, -0.0, -0.0, 2.0, 5.06, 11.99, 14.22, 12.42, 10.93, 11.84, 13.96, 13.56, 10.98, 8.02, 6.22, 4.87, 4.02, 4.02, 4.24, 4.4, 4.8, 5.09, 4.15, 3.6, 2.98, 2.21, 2.6, 2.8, 3.47, 2.8, 7.03, 7.03, 7.7, 7.7, 8.14, 8.37, 8.37, 8.79, 8.79, 8.79, 8.79, 8.79, 9.19, 9.47, 9.47, 9.47, 9.47, 9.84, 10.13, 9.84, 9.49, 8.86, 8.59, 8.87, 8.87, 9.21, 9.21, 9.5, 9.19, 8.56, 8.53, 8.19, 7.81, 7.51, 7.35, 7.07, 6.8, 6.3, 5.57, 4.89, 4.92, 4.44, 4.19, 5.2, 4.55, 4.0, 3.35, 3.14, 2.51, 2.51, 1.6, 1.27, 1.27, 1.11, 0.57, 0.57, 1.23, 1.23, 1.23, 0.55, -0.0, -1.07, -1.41, -2.3, -1.66, -2.4, -1.3, -0.96, -0.0, -0.0, -0.0, -0.0, 3.79, 9.75, 14.87, 12.87, 10.16, 10.15, 12.13, 12.4, 10.6, 8.24, 7.12, 5.36, 3.95, 3.83, 5.05, 6.0, 6.94, 6.94, 6.79, 6.51, 5.09, 3.6, 3.2, 3.2, 3.51, 3.47, 7.48, 7.48, 7.48, 7.7, 8.14, 8.14, 8.37, 8.79, 8.79, 8.79, 8.79, 9.19, 9.45, 9.45, 9.73, 9.47, 9.47, 9.47, 9.84, 10.13, 9.22, 8.86, 8.59, 8.87, 8.87, 9.21, 9.21, 9.5, 9.19, 9.17, 8.53, 8.5, 8.15, 8.08, 7.44, 7.61, 7.2, 6.51, 6.04, 5.7, 5.36, 4.92, 4.77, 4.8, 5.82, 5.08, 4.0, 3.43, 3.43, 3.16, 2.23, 2.23, 1.8, 1.8, 1.11, 1.11, 1.11, 1.23, 1.23, 1.23, -0.0, -0.54, -1.23, -2.4, -2.4, -2.4, -1.83, -0.88, -0.0, -0.0, -0.0, -0.0, 3.6, 6.64, 11.62, 12.79, 11.18, 8.36, 7.67, 7.32, 6.64, 5.86, 5.81, 5.64, 5.86, 6.54, 7.2, 8.4, 8.4, 8.4, 8.63, 7.71, 6.94, 4.66, 3.9, 3.47, 3.04, 3.51, 7.03, 7.03, 7.48, 7.7, 7.7, 8.14, 8.14, 8.14, 8.79, 8.79, 8.79, 9.45, 9.45, 9.45, 9.73, 9.47, 9.47, 9.47, 9.84, 9.49, 9.5, 8.86, 8.87, 8.87, 9.21, 9.21, 9.5, 9.5, 9.48, 9.17, 8.85, 8.5, 8.45, 8.44, 8.0, 7.61, 7.08, 7.01, 6.51, 6.16, 6.23, 5.81, 5.34, 5.09, 5.51, 6.7, 5.08, 4.55, 4.0, 3.78, 3.43, 2.84, 2.23, 2.23, 1.8, 1.8, 1.58, 1.11, 1.23, 1.11, 0.57, -0.54, -1.32, -1.41, -1.19, -1.55, -1.66, -1.19, -0.0, -0.0, -0.0, -0.0, 2.21, 3.6, 6.23, 10.16, 11.5, 8.63, 3.9, 0.71, 1.58, 4.02, 6.36, 7.98, 8.67, 9.4, 9.83, 10.02, 9.54, 9.11, 8.63, 7.71, 6.51, 4.57, 3.47, 2.97, 2.97, 2.97, 7.03, 7.03, 7.48, 7.48, 7.7, 8.14, 8.14, 8.14, 8.79, 8.79, 9.45, 9.45, 9.45, 9.45, 9.47, 9.47, 9.48, 9.48, 9.48, 9.49, 9.5, 8.86, 8.87, 8.87, 9.21, 9.5, 9.5, 9.48, 9.48, 9.46, 9.13, 9.08, 8.78, 8.38, 8.0, 8.15, 7.48, 7.51, 7.26, 7.06, 6.68, 6.71, 6.23, 5.7, 5.7, 5.57, 5.81, 5.08, 4.55, 4.27, 3.88, 3.43, 2.84, 2.84, 2.51, 2.23, 1.8, 1.58, 1.76, 1.76, 0.57, -0.0, -1.16, -1.14, -1.3, -1.55, -1.19, -1.19, -0.0, -0.0, -0.0, -0.0, -0.0, 2.4, 4.02, 7.15, 10.6, 11.18, 8.3, 5.6, 5.05, 7.54, 10.4, 11.3, 11.09, 10.93, 10.02, 9.72, 8.82, 7.89, 6.79, 5.75, 4.22, 2.98, 2.0, 1.26, 1.26, 1.26, 7.03, 7.03, 7.48, 7.73, 7.73, 8.4, 8.4, 8.14, 8.79, 8.79, 9.45, 9.45, 9.45, 9.47, 9.47, 9.48, 9.21, 9.21, 9.49, 9.22, 9.5, 9.21, 8.87, 8.87, 9.5, 9.19, 9.48, 9.48, 9.48, 9.46, 9.13, 9.08, 8.78, 8.65, 8.55, 8.15, 8.0, 8.0, 7.69, 7.51, 7.13, 7.15, 6.68, 6.68, 6.16, 5.7, 5.57, 5.57, 5.31, 4.8, 4.27, 3.88, 3.72, 3.14, 2.84, 2.51, 2.23, 1.8, 1.76, 1.76, 1.23, -0.0, -0.53, -1.1, -1.3, -1.19, -1.3, -1.3, -0.81, -0.88, -0.98, -0.0, -0.0, 2.4, 4.02, 5.75, 9.39, 12.3, 13.49, 12.79, 11.9, 13.02, 14.39, 13.84, 12.01, 10.96, 9.72, 8.36, 6.51, 5.09, 3.58, 1.98, 1.74, 1.26, -0.0, 1.34, 1.34, 1.34, 7.28, 7.28, 7.73, 7.73, 7.73, 8.16, 8.4, 8.4, 8.79, 8.79, 9.47, 9.47, 9.47, 9.2, 9.48, 9.21, 9.21, 9.49, 9.49, 9.5, 9.21, 9.5, 9.21, 9.21, 9.19, 9.19, 9.48, 9.48, 9.48, 9.46, 9.42, 9.37, 8.73, 8.65, 8.82, 8.68, 8.51, 8.42, 8.17, 7.87, 7.58, 7.6, 7.15, 7.13, 6.68, 6.16, 6.14, 5.57, 5.57, 5.09, 5.02, 4.6, 3.88, 3.72, 3.14, 2.51, 2.23, 2.48, 1.76, 1.76, 1.76, 1.23, -0.0, -1.12, -1.32, -1.19, -1.19, -1.7, -1.7, -1.83, -1.55, -0.0, -0.0, 2.4, 3.58, 4.92, 7.55, 10.93, 13.29, 13.49, 13.85, 14.91, 15.59, 14.35, 12.01, 9.89, 7.76, 5.59, 2.6, -0.0, -0.0, -0.0, -0.0, -0.0, -1.79, -2.24, -2.24, -2.24, 7.06, 7.06, 7.73, 7.73, 7.73, 7.73, 8.4, 8.4, 8.81, 9.07, 9.07, 9.2, 9.2, 9.48, 9.21, 9.21, 9.49, 9.49, 9.22, 9.22, 9.21, 9.21, 9.21, 9.5, 9.19, 9.19, 9.48, 9.77, 9.46, 9.42, 9.08, 9.3, 9.01, 8.93, 8.82, 8.68, 8.51, 8.48, 8.64, 8.33, 7.97, 7.58, 7.6, 7.15, 7.13, 6.68, 6.16, 6.16, 6.14, 5.57, 5.09, 5.09, 4.6, 4.27, 3.72, 2.84, 2.84, 2.48, 2.48, 2.22, 2.22, 1.76, -0.0, -0.57, -1.14, -1.3, -1.19, -1.66, -2.53, -2.76, -2.0, -0.87, -0.0, 1.2, 2.21, 3.6, 5.59, 9.06, 10.85, 10.29, 11.54, 14.51, 16.19, 14.56, 12.01, 9.4, 5.86, 1.58, -1.58, -2.21, -1.6, -0.99, -1.2, -2.4, -3.13, -3.58, -3.58, -3.58, 7.06, 7.06, 7.5, 7.73, 7.5, 7.73, 8.16, 8.4, 8.81, 8.81, 8.81, 8.81, 9.48, 9.48, 9.21, 9.21, 9.49, 9.22, 9.22, 9.5, 9.5, 9.21, 9.21, 9.5, 9.5, 9.5, 9.48, 9.46, 9.13, 9.08, 9.02, 8.94, 8.84, 9.1, 8.96, 9.2, 9.01, 8.79, 8.48, 8.77, 8.42, 8.03, 7.6, 7.6, 7.15, 6.68, 6.68, 6.6, 6.16, 6.04, 5.57, 5.57, 5.09, 4.6, 3.88, 3.72, 3.16, 2.86, 2.48, 2.22, 2.22, 1.76, 0.54, -0.57, -1.12, -0.0, -0.0, -1.41, -1.41, -1.98, -1.8, -0.87, -0.0, 0.99, 2.21, 2.98, 4.98, 7.35, 8.63, 8.03, 9.0, 13.43, 15.77, 14.53, 11.99, 7.47, 1.6, -1.34, -2.68, -2.98, -2.53, -1.98, -2.6, -2.97, -3.58, -4.47, -4.47, -4.47, 7.06, 7.06, 7.06, 7.5, 7.5, 7.5, 8.16, 8.16, 8.56, 8.81, 9.09, 9.09, 8.83, 8.83, 9.21, 9.49, 9.22, 9.22, 8.86, 8.86, 9.5, 9.5, 9.5, 9.5, 9.5, 9.19, 9.17, 9.13, 9.08, 9.02, 8.94, 9.21, 9.1, 9.1, 8.96, 9.2, 9.01, 9.21, 8.96, 8.64, 8.33, 7.97, 8.03, 7.6, 7.15, 7.15, 6.68, 6.68, 6.61, 6.6, 6.16, 5.99, 5.57, 5.09, 4.27, 3.88, 3.43, 3.16, 2.86, 2.48, 2.22, 1.94, 0.61, -0.58, -1.12, -1.1, -0.0, -0.0, -0.0, -0.99, -0.99, -0.87, -0.0, -0.0, 0.98, 2.68, 3.79, 5.49, 6.73, 6.64, 8.06, 10.87, 13.1, 13.54, 11.2, 3.84, -2.68, -2.68, -2.0, -3.2, -3.58, -2.84, -2.6, -2.97, -3.58, -4.02, -4.02, -4.02, 7.06, 7.06, 7.1, 7.76, 7.76, 7.76, 8.18, 8.43, 8.83, 8.83, 8.83, 8.83, 8.83, 8.83, 9.12, 9.22, 9.22, 8.86, 8.86, 8.59, 9.21, 9.5, 9.82, 9.82, 9.5, 9.17, 9.13, 9.08, 9.02, 9.3, 8.94, 9.21, 9.48, 9.1, 9.35, 9.2, 9.01, 9.21, 8.96, 8.64, 8.77, 8.42, 8.03, 7.6, 7.6, 7.15, 7.13, 7.13, 6.68, 6.61, 6.6, 6.16, 6.14, 5.57, 5.02, 4.52, 3.88, 3.72, 3.16, 2.86, 2.22, 2.44, 1.19, -0.53, -1.8, -1.72, -0.0, -0.0, -0.0, -0.0, -0.0, -0.0, -0.0, -0.0, 0.88, 1.83, 3.35, 3.91, 4.95, 6.01, 7.06, 8.42, 9.66, 11.53, 10.53, 3.22, -2.97, -0.0, -0.0, -1.0, -2.53, -2.84, -2.21, -2.4, -2.68, -3.13, -3.13, -3.13, 7.1, 7.1, 7.1, 7.53, 7.76, 7.76, 8.18, 8.18, 8.18, 8.83, 8.83, 8.83, 8.85, 8.85, 8.85, 9.14, 9.21, 9.21, 8.86, 9.5, 9.5, 9.5, 9.5, 9.5, 9.48, 9.13, 9.08, 9.37, 9.02, 9.3, 9.3, 9.21, 9.48, 9.1, 9.35, 9.2, 9.01, 9.21, 8.96, 9.11, 8.77, 8.42, 8.42, 8.03, 7.6, 7.6, 7.15, 7.13, 7.13, 7.13, 6.68, 6.6, 6.16, 5.7, 5.09, 4.6, 4.52, 3.88, 3.72, 2.84, 2.48, 2.44, 1.76, -0.0, -2.16, -2.64, -0.82, -0.0, -0.0, 0.88, 0.88, -0.0, -0.0, -0.0, -0.0, 0.88, 2.76, 3.35, 4.43, 5.06, 6.44, 6.44, 7.06, 10.15, 11.18, -2.0, -2.84, -0.0, 1.26, 1.26, -0.85, -1.49, -1.6, -1.79, -2.24, -2.68, -2.68, -2.68, 7.1, 7.1, 7.1, 7.53, 7.53, 7.53, 7.93, 8.18, 8.46, 8.85, 8.85, 8.85, 8.85, 9.14, 8.86, 9.21, 9.21, 9.21, 9.21, 9.5, 9.5, 9.21, 9.19, 9.17, 9.46, 9.13, 9.08, 9.37, 9.37, 9.3, 9.3, 9.21, 9.48, 9.1, 9.35, 9.2, 9.01, 9.21, 8.96, 9.11, 8.79, 8.86, 8.42, 8.03, 8.05, 7.6, 7.6, 7.15, 7.15, 7.13, 6.68, 6.68, 6.16, 5.7, 5.7, 5.09, 4.6, 4.6, 3.88, 2.84, 2.23, 2.48, 2.22, -0.0, -1.7, -2.82, -2.8, -0.82, -0.0, -0.0, 0.88, 1.83, 0.98, -0.0, -0.0, 0.88, 2.53, 3.48, 3.48, 4.54, 5.82, 5.82, 6.8, 9.54, 7.12, -0.85, -2.53, -0.0, 0.45, 0.45, -0.95, -0.95, -1.34, -1.34, -1.34, -1.79, -1.79, -1.79, 7.13, 7.13, 7.13, 7.55, 7.55, 7.55, 7.8, 8.2, 8.2, 8.2, 8.86, 8.86, 8.86, 8.86, 9.21, 9.21, 9.21, 9.21, 9.21, 9.5, 9.21, 9.19, 8.87, 8.85, 9.13, 9.42, 9.42, 9.42, 9.37, 9.66, 9.3, 9.21, 9.48, 9.35, 9.35, 9.2, 9.01, 9.21, 8.96, 9.11, 8.79, 8.86, 8.42, 8.47, 8.05, 8.05, 7.6, 7.6, 7.6, 7.13, 7.13, 6.68, 6.68, 5.7, 5.7, 5.7, 5.24, 4.8, 4.11, 3.35, 2.84, 2.23, 2.48, 1.11, -0.63, -2.84, -4.01, -2.6, -0.88, -0.0, -0.0, 0.81, 1.83, 0.88, -0.0, 0.98, 2.95, 3.48, 3.93, 4.22, 4.6, 5.82, 6.8, 12.96, 6.66, -0.87, -2.4, -0.0, 0.89, -2.23, -2.8, -1.6, 0.0, -1.34, -1.34, -1.79, -1.79, -1.79, 7.13, 7.13, 7.13, 7.55, 7.55, 7.83, 7.83, 8.22, 8.22, 8.22, 8.59, 8.86, 8.86, 9.21, 9.5, 9.5, 9.5, 9.5, 9.21, 9.21, 8.87, 8.58, 8.85, 8.85, 9.42, 9.42, 9.42, 9.66, 9.59, 9.66, 9.3, 9.21, 9.48, 9.35, 9.2, 9.2, 9.01, 9.21, 8.96, 9.11, 9.23, 8.87, 8.47, 8.49, 8.05, 8.05, 8.05, 7.6, 7.6, 7.15, 7.13, 6.68, 6.23, 6.23, 5.78, 5.7, 5.7, 5.24, 4.77, 4.11, 3.14, 2.84, 2.23, 1.8, 0.59, -1.76, -3.49, -3.15, -2.76, -0.96, -0.0, -0.0, 0.98, 1.08, 0.98, 0.98, 1.66, 2.95, 3.93, 3.58, 3.93, 5.2, 10.16, 12.07, 5.36, -2.07, -2.4, -0.79, -1.9, -4.38, -4.4, -2.21, -1.0, 0.0, 1.34, -1.34, -1.34, -1.34, 6.9, 6.9, 7.16, 7.57, 7.57, 7.57, 7.57, 7.96, 7.96, 8.51, 8.87, 8.86, 9.21, 9.5, 9.5, 9.5, 9.5, 9.21, 9.21, 8.59, 8.58, 8.56, 8.85, 8.82, 9.42, 9.42, 9.66, 9.66, 9.59, 9.86, 9.76, 9.21, 9.48, 9.35, 9.6, 9.42, 9.42, 9.21, 9.39, 9.11, 9.23, 8.87, 8.92, 8.49, 8.49, 8.05, 8.05, 8.05, 7.6, 7.6, 7.13, 6.68, 6.23, 6.23, 5.78, 5.78, 5.7, 5.7, 5.24, 4.6, 3.6, 3.14, 2.84, 2.51, 1.6, -0.0, -1.8, -2.22, -2.76, -1.66, -0.98, -0.0, -0.0, 0.87, 1.13, 0.99, 0.98, 1.8, 2.84, 3.58, 3.6, 4.15, 8.8, 10.6, 4.92, -2.53, -2.95, -2.68, -2.86, -4.47, -4.4, -2.15, 0.0, 0.0, 0.0, -0.89, -0.89, -0.89, 6.92, 6.92, 6.92, 6.92, 7.59, 7.59, 7.59, 8.23, 8.23, 8.59, 8.87, 9.21, 9.5, 9.5, 9.84, 9.5, 9.21, 9.5, 9.21, 8.58, 8.56, 8.24, 8.53, 8.82, 9.42, 9.42, 9.42, 9.37, 9.59, 9.5, 9.76, 9.63, 9.63, 9.48, 9.71, 9.51, 9.42, 9.21, 9.39, 9.11, 9.23, 8.87, 8.92, 8.47, 8.49, 8.49, 8.05, 8.05, 7.6, 7.6, 7.15, 6.68, 6.23, 6.23, 5.78, 5.78, 5.78, 5.7, 5.7, 4.8, 4.11, 3.35, 3.14, 2.84, 2.23, 1.84, 0.59, -0.59, -1.8, -1.66, -0.88, -0.0, -0.0, 0.87, 1.13, 0.99, -0.0, 0.99, 2.21, 2.98, 2.98, 4.47, 6.71, 9.36, 5.36, -1.79, -3.22, -3.22, -2.86, -3.58, -3.74, -2.53, -1.0, 0.0, 0.0, 0.89, 0.89, 0.89, 6.92, 6.92, 7.19, 7.19, 7.59, 7.59, 7.59, 7.96, 8.23, 8.87, 8.86, 9.21, 9.5, 9.84, 9.84, 9.5, 9.5, 9.21, 8.87, 8.87, 8.56, 8.24, 8.53, 8.85, 9.08, 9.08, 9.37, 9.37, 9.3, 9.3, 9.76, 9.63, 9.63, 9.48, 9.71, 9.51, 9.7, 9.43, 9.54, 9.23, 9.23, 8.87, 8.92, 8.47, 8.47, 8.49, 8.05, 7.6, 7.6, 7.15, 7.15, 6.68, 6.23, 6.23, 5.78, 5.78, 5.78, 5.78, 5.7, 5.24, 4.77, 4.11, 3.35, 3.14, 2.23, 2.23, 1.84, 1.13, -0.0, -0.0, -0.88, -0.0, -0.0, 0.98, 0.87, 0.99, -0.0, -0.0, 1.2, 1.9, 3.13, 4.02, 5.75, 8.46, 7.55, 0.0, -3.47, -3.2, -2.8, -2.12, -2.24, -2.23, 0.0, 1.0, 0.0, 0.0, 0.0, 0.0, 6.94, 6.94, 6.94, 7.33, 7.33, 7.59, 7.59, 8.23, 8.51, 8.59, 9.21, 9.5, 9.5, 9.84, 10.13, 9.5, 9.21, 9.19, 8.87, 8.56, 8.85, 8.85, 8.85, 8.82, 9.08, 9.37, 9.02, 9.3, 9.3, 9.58, 9.21, 9.63, 9.63, 9.48, 9.71, 9.51, 9.7, 9.39, 9.54, 9.11, 9.23, 8.87, 8.86, 8.42, 8.47, 8.03, 8.03, 7.6, 7.6, 7.15, 7.15, 6.26, 6.26, 6.23, 5.78, 5.78, 5.34, 5.78, 5.7, 5.24, 4.8, 4.11, 4.11, 3.35, 3.14, 2.53, 1.84, 1.84, 1.6, 0.88, -0.0, -0.0, -0.0, -0.0, 1.13, 0.99, 1.2, -0.0, -0.0, 2.4, 3.13, 3.9, 5.59, 8.33, 9.7, 4.6, -2.4, -3.47, -2.54, -1.34, 0.0, 0.0, 0.0, 1.2, 1.2, 0.0, 0.0, 0.0, 6.94, 6.94, 6.94, 7.33, 7.33, 7.59, 7.96, 8.23, 8.59, 8.86, 9.21, 9.5, 9.5, 9.5, 9.5, 9.21, 9.19, 8.58, 8.87, 8.56, 8.85, 8.85, 8.85, 8.53, 8.82, 8.78, 9.02, 9.3, 9.3, 9.21, 9.21, 9.48, 9.1, 9.35, 9.2, 9.42, 9.21, 9.39, 8.96, 9.11, 8.79, 8.77, 8.86, 8.42, 8.41, 8.03, 7.58, 7.6, 7.15, 7.15, 6.71, 6.26, 6.26, 6.26, 5.78, 5.78, 5.34, 5.33, 5.7, 5.7, 5.24, 4.77, 4.11, 4.11, 3.35, 2.79, 2.53, 2.23, 2.23, 1.33, -0.0, -0.0, -0.87, -0.0, -0.0, 0.99, 1.2, 1.2, 1.0, 2.4, 3.13, 3.9, 5.59, 8.33, 11.06, 8.14, 0.99, -2.68, -2.68, -1.26, 0.0, 0.0, 0.0, 1.0, 1.0, 1.0, 1.0, 1.0, 6.94, 6.94, 6.94, 7.59, 7.59, 7.59, 8.23, 8.22, 8.59, 8.86, 9.21, 9.21, 9.5, 9.5, 9.5, 9.5, 9.19, 8.87, 8.87, 8.85, 8.85, 8.85, 8.85, 8.53, 8.82, 8.78, 8.78, 9.3, 8.94, 9.21, 9.21, 9.1, 9.1, 8.96, 9.2, 9.01, 9.21, 8.79, 8.91, 8.48, 8.64, 8.64, 8.33, 8.3, 7.97, 7.97, 7.58, 7.13, 7.15, 7.15, 7.15, 6.26, 6.26, 5.81, 5.81, 5.78, 5.33, 5.33, 5.24, 5.24, 5.24, 4.8, 4.6, 4.11, 4.11, 3.6, 2.79, 2.53, 2.53, 1.88, 0.61, -0.0, -0.99, -0.0, -0.0, 1.2, 1.2, 1.0, 1.58, 1.79, 2.68, 4.38, 6.02, 8.33, 11.06, 11.15, 6.94, 1.2, -0.95, -0.95, 0.0, 0.0, 0.0, 1.0, 1.58, 1.58, 1.58, 1.58, 6.94, 6.94, 7.19, 7.59, 7.59, 8.23, 7.96, 8.22, 8.59, 8.59, 8.87, 9.21, 9.21, 9.5, 9.5, 9.19, 9.17, 8.87, 8.87, 8.87, 9.46, 9.13, 9.13, 8.82, 8.82, 8.78, 8.78, 9.08, 8.94, 9.21, 9.21, 9.1, 9.1, 8.82, 8.68, 8.91, 8.51, 8.72, 8.72, 8.48, 8.48, 8.17, 8.17, 8.17, 7.87, 7.4, 7.07, 7.13, 7.15, 7.15, 6.71, 6.26, 6.26, 5.81, 5.81, 5.81, 5.33, 5.33, 5.33, 5.33, 5.24, 4.8, 4.77, 4.3, 4.11, 3.6, 3.07, 2.5, 2.21, 2.21, 1.2, -0.0, -0.54, -0.0, -0.0, -0.0, -0.0, 1.26, 1.26, 1.79, 2.68, 4.38, 5.59, 7.89, 10.7, 12.07, 10.73, 7.6, 4.92, 3.58, 3.13, 2.97, 3.04, 3.47, 3.47, 3.39, 3.39, 3.39, 6.94, 6.94, 7.19, 7.59, 7.59, 8.23, 7.96, 8.22, 8.59, 8.59, 8.87, 9.21, 9.21, 9.5, 9.5, 9.19, 9.17, 8.87, 8.87, 8.87, 9.46, 9.13, 9.13, 8.82, 8.82, 8.78, 8.78, 9.08, 8.94, 9.21, 9.21, 9.1, 9.1, 8.82, 8.68, 8.91, 8.51, 8.72, 8.72, 8.48, 8.48, 8.17, 8.17, 8.17, 7.87, 7.4, 7.07, 7.13, 7.15, 7.15, 6.71, 6.26, 6.26, 5.81, 5.81, 5.81, 5.33, 5.33, 5.33, 5.33, 5.24, 4.8, 4.77, 4.3, 4.11, 3.6, 3.07, 2.5, 2.21, 2.21, 1.2, -0.0, -0.54, -0.0, -0.0, -0.0, -0.0, 1.26, 1.26, 1.79, 2.68, 3.9, 5.75, 8.0, 9.83, 12.07, 12.49, 11.51, 10.25, 9.36, 8.9, 8.01, 7.6, 7.6, 7.15, 6.26, 6.26, 6.26]}, {"header": {"dx": 0.06612293990616946, "dy": 0.0552356325346848, "nx": 98, "ny": 59, "la1": 35.046912555036876, "la2": 31.78801023549047, "lo1": -121.43107172385933, "lo2": -114.95102361305473, "refTime": "2026041615", "parameterCategory": 1, "parameterNumber": 3}, "data": [-14.15, -14.39, -13.99, -13.19, -11.6, -10.0, -8.68, -8.0, -7.2, -6.28, -5.81, -4.6, -3.6, -3.6, -3.04, -3.58, -3.47, -2.68, -3.76, -2.66, -1.25, -0.0, -0.0, 0.89, 0.76, 0.81, -0.0, -0.0, -0.0, -0.0, 1.0, 1.26, 1.79, 1.58, 0.99, 0.0, 0.0, -1.52, -2.35, -2.35, -2.9, -2.67, -3.35, -4.6, -7.13, -8.86, -10.69, -12.56, -7.82, -0.89, 1.8, 1.7, 1.63, 3.09, 4.6, 5.52, 5.63, 5.51, 4.75, 4.65, 3.96, 3.32, 3.07, 3.16, 3.25, 3.85, 4.01, 3.91, 4.93, 4.55, 3.87, 3.82, 3.19, 3.29, 3.29, 3.16, 1.56, 0.0, 0.0, 1.58, 2.24, 1.34, -0.0, -2.0, -2.68, -2.68, -2.68, -1.9, -1.8, -2.47, -3.09, -4.12, -4.12, -4.0, -2.44, -0.79, 0.0, 0.78, -14.15, -14.39, -13.99, -13.71, -12.51, -10.91, -9.71, -8.28, -7.48, -6.8, -6.1, -5.34, -4.22, -3.16, -3.72, -3.2, -2.68, -3.82, -3.76, -4.16, -3.8, -2.21, -1.18, -0.0, 1.7, 1.55, 0.88, -0.0, -0.0, -0.98, -0.0, -0.0, 1.34, 1.26, 1.13, 0.0, -0.78, -1.55, -2.67, -3.4, -4.5, -4.66, -6.97, -10.34, -13.17, -15.39, -15.78, -10.32, -0.81, 3.2, 2.95, 3.47, 3.55, 4.22, 5.59, 5.52, 5.63, 5.72, 4.93, 4.65, 3.96, 3.82, 3.91, 3.85, 4.13, 4.68, 4.87, 4.75, 4.65, 4.71, 4.13, 3.96, 3.19, 2.41, 2.41, 2.34, 2.34, 0.0, 0.0, 1.58, 2.24, 1.34, -0.0, -2.0, -2.68, -2.68, -2.68, -1.9, -1.8, -2.47, -3.09, -4.12, -4.12, -4.0, -2.44, -0.79, 0.0, 0.78, -14.39, -14.39, -14.39, -13.48, -12.79, -11.6, -10.4, -9.2, -8.15, -7.71, -6.6, -5.4, -4.84, -4.19, -2.3, -1.8, -1.6, -2.97, -3.58, -4.47, -4.03, -3.8, -3.35, -2.4, -0.0, 0.81, 1.66, 0.79, -0.0, -2.3, -2.53, -2.41, -1.2, 0.0, 0.0, 0.0, -0.83, -2.54, -4.0, -5.64, -7.15, -9.43, -12.72, -14.54, -15.17, -14.14, -10.25, -2.47, 3.58, 3.63, 4.16, 4.56, 5.1, 5.49, 5.52, 5.52, 5.63, 5.4, 4.93, 4.65, 3.96, 4.48, 4.87, 5.3, 5.63, 6.33, 6.21, 5.48, 5.67, 5.55, 4.71, 3.96, 2.34, 1.62, 1.54, 1.56, 1.58, 0.0, -0.73, 0.0, 1.26, 1.34, -0.95, -2.6, -2.6, -2.23, -2.24, -2.4, -2.68, -3.4, -4.6, -5.21, -4.96, -3.4, -1.72, 0.0, 0.76, 0.89, -14.39, -14.39, -14.39, -13.99, -13.31, -12.28, -11.08, -9.88, -8.68, -8.0, -7.31, -6.6, -5.82, -4.84, -3.79, -3.07, -2.68, -2.0, -2.54, -3.48, -3.33, -2.66, -3.8, -4.0, -2.99, -0.0, 0.81, -0.0, -0.0, -2.84, -4.84, -5.46, -5.21, -4.66, -3.16, -4.02, -3.6, -5.1, -8.12, -10.18, -11.76, -13.35, -12.96, -10.89, -7.82, -5.48, -1.5, 1.6, 3.32, 3.88, 4.5, 4.83, 4.83, 5.64, 5.52, 5.41, 4.68, 4.58, 4.75, 3.82, 4.06, 4.75, 5.51, 6.45, 7.24, 7.12, 7.25, 7.11, 7.25, 6.95, 6.4, 4.81, 2.41, 1.4, 0.0, 0.0, 0.0, 0.82, 0.0, -1.26, 0.0, 0.0, -1.58, -2.53, -2.53, -1.9, -1.79, -2.98, -4.01, -4.96, -5.64, -4.96, -3.11, -0.87, 0.99, 1.66, 0.82, 0.0, -14.39, -14.39, -14.39, -13.99, -13.48, -12.79, -11.6, -10.8, -9.6, -8.51, -8.22, -7.51, -6.4, -5.58, -5.21, -4.81, -3.79, -2.53, -2.84, -3.47, -3.68, -2.4, -2.4, -2.33, -3.15, -2.54, -1.23, -1.41, -1.6, -3.39, -5.09, -6.7, -8.3, -8.8, -9.11, -9.6, -9.1, -10.02, -11.82, -13.49, -12.84, -9.7, -6.33, -3.91, -1.6, -0.75, 0.0, 0.77, 1.58, 3.16, 4.13, 3.95, 4.07, 4.71, 4.92, 4.8, 4.01, 4.17, 4.75, 3.82, 3.91, 4.68, 6.2, 7.24, 8.3, 8.18, 7.79, 7.79, 8.84, 8.61, 7.71, 7.23, 5.89, 3.85, 1.68, 0.0, -0.84, 0.0, 0.81, -1.79, -1.58, -1.79, -2.54, -2.84, -2.84, -2.97, -2.84, -4.01, -5.59, -5.64, -4.96, -3.47, 0.0, 1.34, 2.4, 0.98, 0.0, 0.0, -14.39, -14.39, -14.51, -14.39, -13.99, -13.31, -12.28, -11.08, -9.88, -9.2, -8.51, -7.81, -6.8, -5.58, -5.15, -5.46, -5.21, -4.19, -3.35, -4.02, -5.24, -5.64, -4.66, -3.8, -3.4, -5.03, -5.37, -5.36, -5.2, -5.2, -4.47, -5.36, -6.65, -8.9, -10.32, -10.52, -10.63, -9.9, -9.85, -10.29, -9.05, -7.27, -3.88, -2.28, -2.33, -2.28, -1.57, -0.77, 0.0, 1.56, 2.31, 2.49, 3.11, 3.21, 3.11, 3.16, 3.16, 3.16, 3.91, 3.96, 3.91, 4.8, 6.57, 7.73, 8.01, 8.66, 8.18, 7.12, 7.9, 7.93, 7.82, 7.82, 8.18, 7.01, 5.38, 2.41, 0.0, 0.0, 0.81, -1.79, -3.47, -4.02, -4.02, -4.38, -4.82, -5.36, -5.82, -5.49, -5.64, -4.71, -3.47, -0.99, 0.0, 1.79, 1.26, 0.0, 0.0, -0.78, -14.39, -14.39, -14.51, -14.51, -14.39, -13.48, -12.79, -11.6, -10.4, -9.71, -8.91, -8.22, -7.03, -5.15, -4.74, -4.81, -5.21, -5.21, -5.15, -4.19, -3.2, -4.95, -6.24, -7.06, -7.76, -8.22, -8.63, -9.11, -7.81, -6.16, -5.2, -3.47, -3.48, -5.37, -7.69, -8.8, -9.6, -8.15, -5.06, -5.2, -7.6, -8.54, -8.15, -6.94, -5.55, -3.19, -0.79, 0.0, 0.0, 0.0, 1.04, 1.6, 2.47, 2.47, 2.28, 2.49, 2.31, 2.41, 2.34, 3.11, 4.01, 4.92, 6.31, 7.08, 7.36, 7.9, 7.25, 6.33, 5.51, 5.29, 5.38, 5.48, 5.2, 4.76, 4.66, 4.76, 3.07, 1.65, 1.55, 0.0, -4.38, -5.75, -5.75, -5.81, -6.71, -7.28, -8.05, -6.95, -5.49, -3.22, -0.95, -0.0, 1.26, 0.95, 0.0, 0.0, -0.89, -0.82, -14.39, -14.39, -14.51, -14.51, -14.39, -13.99, -13.31, -11.88, -11.08, -10.0, -9.42, -8.72, -7.2, -6.18, -4.47, -3.72, -4.43, -5.06, -5.06, -4.01, 0.0, 0.0, -2.24, -4.8, -6.8, -8.17, -9.11, -9.2, -8.0, -7.44, -7.21, -7.6, -8.06, -8.0, -6.95, -6.68, -7.07, -5.15, 0.0, -2.24, -5.2, -7.44, -8.94, -7.9, -4.71, 0.0, 0.82, 1.55, 0.84, 1.07, 0.79, 1.58, 1.52, 2.47, 1.54, 1.62, 1.56, 1.63, 1.52, 2.34, 3.16, 4.07, 4.71, 5.64, 6.42, 6.45, 5.48, 4.06, 3.16, 2.44, 3.23, 3.23, 1.55, 0.78, 1.61, 2.81, 3.87, 4.17, 2.34, 0.78, -1.43, -6.36, -6.55, -6.98, -7.28, -7.73, -6.96, -6.01, -3.9, 0.0, 0.8, 0.71, 1.58, 1.34, 0.0, 0.0, -0.89, -0.82, -14.39, -14.39, -14.51, -14.91, -14.51, -13.99, -13.71, -12.79, -11.6, -10.4, -9.71, -9.63, -9.21, -8.3, -6.82, -5.77, -5.37, -5.37, -4.65, -3.91, 0.0, 1.27, 1.8, 0.0, -1.34, -3.82, -5.81, -6.87, -8.15, -8.63, -9.83, -10.66, -10.04, -8.22, -5.06, -4.29, -3.76, -1.6, 2.24, 2.68, 0.0, -3.79, -4.71, -4.46, -1.3, 0.87, 1.41, 2.8, 2.64, 3.33, 2.26, 2.51, 2.54, 1.67, 1.6, 1.62, 1.56, 0.82, 1.63, 1.63, 2.39, 3.32, 4.26, 5.1, 5.49, 4.92, 3.96, 3.23, 1.63, 1.63, 1.6, 0.69, 0.0, 0.0, 0.0, 0.0, 0.77, 1.6, 1.51, 1.42, 0.78, -5.09, -6.07, -6.79, -6.54, -6.07, -5.06, -4.16, -1.49, 0.95, 1.6, 2.0, 1.6, 0.0, 0.0, -0.78, -0.78, -0.88, -14.39, -14.39, -14.51, -14.51, -14.51, -14.39, -13.99, -13.19, -12.11, -11.08, -10.4, -10.21, -8.68, -9.01, -9.24, -8.4, -8.4, -8.4, -7.81, -6.79, -5.2, -2.8, 0.0, 1.4, 2.24, -0.0, -2.48, -4.43, -6.28, -7.97, -8.49, -7.15, -4.02, 0.0, 0.0, 0.0, 0.0, 2.53, 3.82, 3.6, 1.0, -0.87, -2.4, -2.6, -0.88, 0.0, 0.79, 1.83, 3.47, 4.16, 4.95, 4.26, 2.54, 1.58, 0.77, 0.78, 0.0, 0.0, 0.0, 0.78, 2.31, 4.65, 5.69, 5.69, 5.1, 4.07, 3.19, 2.93, 1.42, 0.0, 0.0, -0.72, -1.4, -1.43, -1.46, -1.41, -2.28, -2.44, -1.44, 0.0, 0.69, -0.73, -4.47, -4.41, -3.45, -3.22, -3.07, -2.0, 0.0, 0.8, 0.95, 0.0, 0.0, -1.9, -1.7, -1.63, -1.63, -0.87, -14.39, -14.39, -14.51, -14.51, -14.51, -14.39, -13.99, -13.31, -12.28, -11.6, -10.91, -10.8, -9.63, -9.35, -9.36, -8.95, -9.36, -9.01, -8.3, -7.74, -7.55, -4.92, -1.79, 1.34, 2.24, -0.0, -0.0, -0.0, 0.0, -3.13, -3.13, -0.0, 2.4, 2.97, 2.24, 0.0, 1.41, 3.72, 2.6, 2.21, 1.0, 0.0, -0.85, -2.48, -2.4, -0.88, 0.0, 1.83, 3.22, 4.29, 4.95, 4.12, 3.15, 2.44, 1.52, 0.78, 0.0, -0.75, -1.6, 0.78, 4.81, 6.8, 7.03, 6.79, 6.32, 5.06, 3.85, 3.29, 0.79, -1.56, -3.19, -3.53, -3.66, -3.6, -3.6, -3.41, -4.32, -4.8, -5.0, -4.75, -2.81, -0.73, -1.4, -2.12, -1.34, -1.6, -1.49, -1.4, 0.0, 0.0, 0.0, -1.9, -2.6, -3.58, -4.11, -3.2, -1.7, 0.95, -14.39, -14.39, -14.39, -14.51, -14.51, -14.39, -13.99, -13.48, -12.79, -11.88, -11.6, -11.08, -10.3, -9.76, -8.08, -7.35, -7.35, -8.43, -8.8, -8.48, -5.7, -2.68, -0.0, 1.2, 1.9, 1.9, 1.58, 1.79, 2.68, 2.68, -0.0, 1.26, 1.2, 1.9, 1.26, 0.0, 1.26, 2.0, 1.34, 1.79, 2.24, 2.0, 0.89, -1.79, -3.2, -2.21, -1.6, 0.0, 1.41, 1.23, 1.72, 2.26, 2.44, 2.35, 1.6, 1.54, 0.79, 0.0, -1.55, 3.13, 7.6, 8.63, 8.3, 7.89, 8.0, 7.35, 7.08, 5.63, 2.39, -0.81, -2.83, -4.4, -4.12, -4.92, -3.95, -3.85, -3.95, -4.71, -4.96, -5.62, -4.8, -1.54, -1.63, -2.0, -0.89, -0.95, -1.9, -1.49, -0.71, 0.0, 0.0, -1.6, -2.12, -4.15, -5.15, -3.9, 0.0, 1.9, -14.39, -14.39, -14.39, -14.39, -14.51, -14.39, -14.39, -13.99, -13.19, -12.28, -11.75, -11.22, -10.83, -10.41, -9.02, -7.27, -7.23, -7.73, -8.18, -7.76, -5.4, -2.17, -0.0, 0.6, 0.57, 0.6, 0.63, 1.2, 1.34, 0.95, -0.0, -0.0, 1.0, 0.85, -0.0, -0.0, -0.0, 0.0, 1.26, 2.6, 3.22, 2.84, 2.21, 0.95, -1.79, -4.02, -4.8, -4.65, -3.76, -2.49, -1.47, -0.82, -0.79, 0.0, 0.0, 1.25, 2.33, 2.33, 0.0, 4.6, 8.46, 8.8, 8.36, 8.46, 8.36, 8.3, 8.32, 7.9, 6.14, 3.91, 1.52, -0.81, -2.53, -2.76, -2.47, -2.26, -1.73, -2.47, -2.72, -3.47, -3.11, -2.51, -2.9, -3.91, -2.0, -1.9, -2.6, -1.9, -0.71, 0.0, 0.0, 0.0, -1.34, -3.2, -4.11, -1.6, 1.79, 1.74, -14.39, -14.39, -14.39, -14.39, -14.39, -14.39, -14.39, -13.99, -13.48, -12.56, -12.28, -11.36, -11.22, -10.41, -9.94, -8.82, -7.9, -7.27, -7.73, -7.35, -5.59, -3.43, -1.26, 0.0, 0.6, 0.6, 0.4, 0.63, -0.0, -0.0, -0.0, -0.0, -0.0, -0.0, -0.8, -0.8, -1.26, -0.0, 1.58, 3.22, 3.16, 2.84, 2.53, 2.4, 0.0, -3.13, -5.09, -6.23, -6.13, -3.76, -2.4, -2.8, -2.4, 0.0, 0.0, 0.85, 0.0, 0.0, 0.0, 5.09, 7.35, 8.49, 8.49, 8.49, 7.6, 6.65, 6.79, 6.32, 7.21, 6.64, 6.64, 3.16, 0.89, 0.89, 1.0, 0.99, 0.99, 0.0, 0.0, 0.0, -1.0, -3.35, -4.37, -4.28, -3.72, -3.16, -2.53, -1.9, -1.0, 0.0, 0.0, 0.0, 0.0, -1.9, -1.9, 0.89, 2.21, 1.74, -13.99, -14.39, -14.15, -14.15, -14.15, -14.15, -14.39, -13.99, -13.48, -12.95, -12.03, -11.5, -10.96, -10.79, -10.23, -9.72, -8.85, -7.9, -7.27, -6.92, -6.28, -5.06, -3.2, -1.26, 0.0, 0.4, 0.63, 0.63, -0.0, -0.0, -0.32, 0.0, 0.0, 0.0, 0.0, -1.79, -1.79, 0.0, 2.53, 3.16, 3.48, 3.48, 2.84, 2.53, 3.2, -0.0, -2.24, -2.8, -2.53, -1.4, 0.0, 0.0, 1.58, 3.13, 3.13, 2.68, -1.9, -2.26, 0.73, 6.58, 5.82, 5.6, 5.64, 5.2, 5.36, 4.92, 3.82, 3.72, 3.79, 5.37, 5.59, 4.43, 2.24, 2.0, 2.24, 2.97, 3.13, 1.79, 0.89, 0.0, 0.0, -2.53, -2.88, -2.2, -1.41, -3.48, -1.98, -1.2, -0.8, 0.0, 0.0, -0.85, -1.0, -0.95, 0.0, 1.74, 0.99, 0.99, -13.99, -14.15, -14.15, -14.15, -14.15, -14.15, -14.39, -14.39, -13.99, -13.48, -12.42, -11.88, -11.34, -10.7, -10.59, -10.3, -9.77, -8.85, -7.9, -7.23, -6.64, -6.04, -5.08, -2.86, -0.63, 0.0, 0.63, 0.45, 0.0, -0.0, -0.63, -0.89, -0.45, 0.0, 0.0, -1.26, -1.34, 0.95, 3.16, 3.49, 3.48, 3.16, 3.16, 3.16, 2.48, 2.48, 1.8, 1.4, 1.9, 2.24, 2.24, 2.24, 2.68, 2.68, 2.24, 2.24, 0.0, 0.0, 2.6, 5.36, 3.6, 3.16, 2.84, 3.2, 2.8, 2.24, 0.0, 1.9, 4.46, 3.76, 2.4, 1.6, 0.0, -0.0, 0.0, 2.24, 2.68, 1.6, -0.0, -0.0, -0.0, 0.0, -0.99, -0.79, 0.0, 0.95, 0.0, -1.0, 0.0, 0.0, -0.87, -1.58, -1.34, 0.0, 0.95, 1.74, 0.87, 0.87, -13.99, -14.15, -14.15, -14.15, -14.15, -14.15, -14.15, -14.15, -13.76, -13.23, -12.7, -12.03, -11.24, -11.07, -10.59, -10.65, -10.09, -9.17, -8.53, -7.86, -7.27, -6.67, -5.72, -4.45, -1.98, 0.0, 0.4, 0.63, 0.45, -0.0, -0.0, -0.0, -0.0, 0.0, 0.0, 0.0, -0.0, 2.48, 4.11, 4.11, 3.48, 2.84, 2.73, 2.41, 2.48, 2.48, 2.48, 2.48, 2.48, 2.84, 2.84, 1.4, 1.9, 2.24, 1.79, 1.58, 1.6, 2.84, 3.58, 3.13, 1.6, 1.27, 1.8, 2.53, 3.2, 2.24, 2.24, 0.0, 1.4, 0.0, 0.0, -1.34, -2.53, -3.2, -1.26, 2.24, 4.47, 3.58, 2.12, 1.9, 1.9, 0.95, 0.0, 0.0, 0.0, 0.0, 0.89, 0.0, -0.99, -1.66, -2.07, -2.6, -2.12, -1.79, 0.0, 0.85, 1.4, 1.4, -13.99, -14.15, -14.15, -14.15, -14.15, -14.15, -14.15, -14.15, -13.76, -13.62, -12.7, -12.16, -11.62, -11.07, -10.59, -10.06, -10.09, -10.09, -9.46, -8.22, -7.3, -6.69, -6.06, -4.47, -2.82, -0.57, 0.0, 0.0, 0.0, -0.0, 0.54, 0.53, 0.53, 0.65, 0.54, 1.6, 2.53, 2.32, 2.6, 2.73, 1.41, 1.27, 1.41, 1.27, 1.27, 1.27, 1.27, 2.48, 2.48, 2.84, 2.53, 2.8, 2.21, 2.68, 2.68, 2.68, 2.21, 2.21, 0.0, -0.0, -0.0, -0.0, 1.6, 2.84, 3.72, 3.2, 2.68, 0.0, -4.46, -3.68, -2.21, -1.58, -2.21, -2.23, -0.0, 3.2, 5.36, 5.59, 5.51, 4.38, 3.58, 2.68, 1.79, 0.0, -0.95, -2.0, -3.22, -0.85, -2.68, -3.63, -3.07, -2.84, -2.8, -3.04, -1.79, -0.0, 0.85, 0.85, -13.99, -14.15, -14.15, -14.15, -14.15, -14.15, -14.15, -14.15, -14.15, -13.62, -13.09, -12.54, -11.99, -11.35, -11.16, -10.86, -10.06, -10.09, -9.46, -7.93, -7.32, -6.98, -6.35, -5.59, -4.29, -2.4, -1.16, -1.0, 0.0, 0.54, 0.99, 1.27, 1.76, 1.73, 2.18, 2.16, 2.32, 1.14, -0.0, -0.0, -0.0, -0.0, -0.0, -0.0, -0.0, 1.27, 1.27, 1.41, 2.23, 2.84, 2.53, 3.2, 3.2, 3.2, 3.58, 3.58, 2.68, 0.0, 0.0, -0.0, -0.0, 1.4, 2.53, 3.6, 3.83, 4.0, 2.97, 0.0, -2.47, -2.21, 0.0, 1.58, 1.6, 0.8, 0.82, 1.8, 1.74, 2.41, 4.11, 4.54, 2.54, 1.79, 0.0, -1.2, -2.54, -4.15, -5.75, -6.07, -5.06, -5.46, -4.54, -3.48, -4.22, -3.74, -3.13, -1.26, -0.0, -0.0, -13.76, -13.76, -14.15, -14.15, -14.15, -14.15, -14.15, -14.15, -14.15, -13.62, -13.23, -12.7, -12.27, -11.72, -11.72, -10.3, -10.06, -10.23, -10.28, -8.6, -8.12, -7.33, -7.6, -7.35, -6.08, -4.84, -3.58, -2.6, -1.2, -0.0, 1.16, 1.27, 1.76, 1.73, 1.84, 1.67, 1.8, 1.14, 0.53, -0.0, -0.0, 0.55, 0.57, 0.57, 0.59, 1.41, 1.41, 1.41, 1.27, 2.84, 2.84, 2.84, 3.82, 3.82, 3.47, 3.58, 3.13, 0.89, 0.0, -0.0, -0.0, 1.6, 3.16, 4.09, 4.15, 3.9, 2.68, 1.9, 0.82, 1.6, 3.19, 3.95, 3.12, 1.58, 0.0, -2.37, -3.88, -4.16, 0.0, 0.88, 0.85, 0.0, 0.0, -1.34, -2.24, -2.6, -2.86, -3.22, -5.09, -5.05, -5.2, -4.84, -4.84, -4.66, -4.02, -2.4, -0.0, -0.0, -13.62, -13.62, -13.76, -14.15, -14.15, -14.15, -14.15, -14.15, -14.15, -13.62, -13.36, -12.82, -12.27, -12.09, -11.8, -11.23, -10.36, -10.59, -9.86, -9.92, -9.27, -8.82, -8.82, -8.15, -6.79, -5.75, -4.19, -3.53, -1.7, -0.0, 0.53, 1.13, 1.11, 1.73, 1.7, 1.7, 1.14, 1.14, 1.16, 1.16, 1.16, 1.07, 1.19, 1.08, 1.27, 1.08, 1.41, 1.41, 1.27, 2.23, 2.84, 3.16, 3.72, 4.24, 4.24, 3.58, 2.68, 0.0, -0.0, -0.0, -0.0, 3.2, 3.72, 3.72, 2.98, 2.97, 2.68, 3.39, 4.11, 5.21, 6.2, 6.2, 3.79, 0.0, -3.1, -6.31, -9.57, -8.68, -6.11, -2.76, -0.99, 0.0, 0.0, 0.0, 0.0, 0.0, 0.0, 0.0, -0.85, -2.84, -4.84, -5.43, -3.83, -2.24, -2.23, -1.49, -0.0, -0.0, -13.62, -13.62, -13.62, -14.15, -14.15, -14.15, -14.15, -14.15, -14.01, -13.75, -13.36, -13.2, -12.82, -12.0, -11.8, -11.52, -10.94, -10.3, -10.51, -9.94, -9.37, -9.37, -9.59, -9.02, -8.08, -6.51, -5.08, -3.87, -2.24, -0.6, -0.0, 0.61, 0.59, 1.23, 1.19, 1.16, 1.16, 1.7, 1.7, 1.7, 1.7, 2.18, 2.4, 2.2, 1.76, 1.8, 2.2, 2.48, 2.48, 2.84, 2.84, 3.16, 3.72, 4.24, 4.24, 4.77, 3.95, 2.0, -0.0, -2.24, 1.34, 3.47, 4.15, 3.2, 2.97, 2.97, 3.13, 3.13, 4.66, 6.79, 7.76, 7.95, 5.3, 0.76, -5.82, -9.19, -12.25, -11.85, -10.0, -6.64, -3.6, -1.79, -0.0, 0.95, 1.34, 1.26, -0.0, -0.95, -1.58, -2.53, -3.72, -3.49, 0.0, 1.9, 0.65, -0.0, -0.0, -0.0, -13.62, -13.62, -13.62, -14.15, -14.15, -14.15, -13.9, -13.9, -13.75, -13.75, -13.75, -13.36, -12.93, -12.37, -12.09, -11.87, -11.28, -10.88, -10.59, -10.23, -9.66, -9.37, -9.37, -9.5, -9.21, -7.44, -6.41, -4.8, -3.07, -1.2, -0.0, -0.0, 0.51, 0.57, 1.08, 1.19, 1.16, 1.7, 1.7, 2.4, 2.4, 2.84, 3.08, 3.08, 2.84, 2.86, 3.22, 3.48, 3.16, 2.84, 2.84, 3.16, 3.72, 4.09, 4.4, 5.2, 5.09, 3.9, 1.79, 0.0, 0.0, 3.13, 4.02, 4.02, 3.58, 3.58, 3.13, 2.68, 3.13, 3.58, 3.58, 2.48, 1.79, 1.27, -3.13, -6.79, -10.18, -11.99, -11.6, -8.93, -4.87, -2.0, -0.0, -0.0, -0.0, -0.0, -0.0, -0.8, -1.79, -1.26, -2.84, 0.0, 2.6, 2.86, 1.74, -0.0, -0.0, -0.0, -13.62, -13.62, -13.62, -13.62, -14.15, -13.9, -13.9, -13.9, -13.75, -13.75, -13.75, -13.75, -12.93, -12.93, -12.45, -12.22, -11.87, -10.94, -10.88, -10.3, -10.06, -9.13, -9.37, -9.3, -9.76, -8.93, -7.35, -5.75, -3.6, -2.24, -1.26, -0.0, -0.0, -0.0, 0.57, 1.08, 1.19, 1.73, 1.73, 2.2, 2.4, 2.84, 3.49, 3.49, 3.83, 3.49, 3.76, 4.11, 4.8, 4.09, 3.72, 3.16, 3.72, 4.09, 4.46, 5.2, 4.8, 5.09, 4.02, 2.8, 1.6, 2.68, 3.58, 3.58, 4.02, 3.58, 3.58, 3.58, 2.68, 2.24, 0.0, -3.6, -1.74, -0.0, -0.0, -3.82, -7.06, -9.75, -11.21, -8.4, -4.24, -0.0, -0.0, -0.0, -0.0, -0.0, -0.0, -0.0, -0.0, -0.0, -0.0, 1.74, 2.53, 2.21, 0.85, -0.0, -0.0, -0.0, -13.62, -13.62, -13.62, -14.01, -14.15, -14.15, -13.9, -13.9, -13.75, -13.75, -13.75, -13.48, -13.48, -12.65, -12.45, -12.16, -11.58, -11.28, -11.23, -10.88, -10.65, -10.06, -9.42, -9.3, -9.21, -9.48, -8.27, -6.41, -4.8, -3.07, -1.79, -1.26, -0.54, -0.0, -0.0, 0.57, 1.23, 1.08, 1.73, 2.2, 2.2, 2.86, 3.49, 3.49, 3.83, 3.83, 3.49, 3.73, 4.0, 4.4, 4.11, 4.4, 4.09, 3.48, 3.79, 4.29, 4.65, 4.19, 4.66, 4.47, 3.72, 2.68, 2.97, 4.02, 4.02, 4.02, 4.02, 3.47, 2.97, 0.0, -3.63, -4.0, -1.22, 0.0, 0.0, -0.0, -2.68, -4.85, -7.4, -6.7, -2.0, 2.21, 1.4, -0.0, -0.0, -0.0, -0.0, -0.0, -0.0, -0.0, -0.0, 1.49, 2.0, 2.4, 0.8, -0.0, -0.0, -0.0, -13.62, -13.62, -13.62, -14.01, -14.15, -13.9, -13.9, -13.9, -13.75, -13.75, -13.75, -13.48, -13.48, -13.01, -12.8, -12.16, -11.92, -11.87, -11.58, -11.23, -10.94, -10.36, -9.72, -9.37, -9.21, -9.48, -8.55, -7.61, -5.21, -3.6, -2.6, -1.79, -1.26, -0.54, -0.0, 0.51, 1.13, 1.11, 1.76, 2.22, 2.44, 2.86, 2.86, 3.48, 3.79, 4.07, 4.07, 4.55, 4.55, 4.8, 5.09, 4.6, 5.2, 4.65, 4.65, 4.65, 4.11, 4.11, 4.09, 4.02, 4.66, 4.77, 4.02, 4.02, 4.02, 4.02, 3.95, 3.95, 2.4, 0.0, -1.8, -2.54, -1.5, 0.0, 1.58, 2.31, 0.0, -3.95, -4.85, -4.47, -0.0, 2.41, 2.68, 1.6, 0.87, -0.0, -0.0, 0.0, 1.26, 0.71, -0.0, -0.0, 0.89, 1.34, 0.89, 0.0, 0.0, 0.0, -13.62, -13.62, -13.62, -14.01, -14.15, -13.9, -13.9, -13.9, -13.75, -13.75, -13.75, -13.48, -13.48, -13.01, -13.01, -12.51, -12.16, -11.87, -11.52, -11.52, -11.28, -10.94, -10.3, -9.66, -9.3, -9.21, -9.1, -7.9, -6.41, -4.55, -3.2, -3.2, -2.6, -1.79, -1.2, -0.0, -0.0, 1.2, 1.61, 2.23, 2.84, 2.84, 2.84, 3.43, 3.78, 4.0, 4.55, 4.55, 4.8, 5.02, 4.66, 5.24, 4.6, 4.27, 4.19, 4.19, 4.11, 3.79, 3.48, 3.58, 4.66, 4.92, 5.81, 4.47, 4.92, 4.02, 3.9, 1.9, 1.0, 0.0, -2.0, -3.33, -2.35, -0.79, 2.34, 3.19, 0.0, -3.47, -3.2, -2.6, -0.0, 2.3, 2.98, 2.98, 1.49, 0.71, -0.0, 1.26, 2.23, 2.53, 1.74, 1.0, -0.0, 0.0, 0.0, 0.0, 0.0, 0.0, -13.62, -13.62, -13.62, -14.01, -14.15, -13.9, -13.9, -13.9, -13.9, -13.75, -13.48, -13.48, -13.48, -13.58, -12.73, -12.51, -12.16, -12.16, -11.87, -11.52, -11.52, -11.28, -10.65, -10.01, -9.37, -8.94, -9.21, -8.65, -8.0, -6.51, -4.84, -3.88, -3.07, -2.4, -1.79, -0.63, -0.0, 0.71, 1.2, 2.21, 2.79, 3.35, 3.6, 3.6, 3.6, 3.6, 4.27, 4.55, 4.8, 4.6, 4.77, 4.8, 4.8, 4.6, 4.27, 4.19, 3.79, 3.79, 4.19, 4.19, 4.6, 4.82, 4.47, 4.47, 4.47, 5.36, 2.98, 0.0, -1.0, -0.99, -0.96, -2.51, -3.15, -4.12, -2.44, -2.39, -2.54, -3.13, -1.74, -1.6, -0.0, 1.16, 2.2, 2.88, 2.3, 1.49, 0.85, 1.6, 3.22, 3.6, 2.98, 1.58, -0.0, 0.0, 0.0, 0.0, 0.0, 0.0, -13.62, -13.62, -13.62, -14.01, -14.01, -13.9, -13.9, -13.9, -13.9, -13.48, -13.48, -13.48, -13.85, -13.58, -13.38, -12.73, -12.51, -12.16, -11.87, -11.87, -11.87, -11.28, -11.23, -10.59, -9.94, -9.94, -9.3, -8.94, -8.29, -7.35, -5.86, -4.29, -3.72, -3.07, -2.4, -1.34, -0.63, -0.0, 1.26, 1.9, 2.68, 3.6, 4.11, 5.09, 4.85, 4.3, 4.6, 4.8, 4.6, 4.6, 4.77, 4.8, 4.89, 4.8, 4.6, 3.64, 3.76, 4.43, 4.11, 4.43, 4.11, 3.58, 3.39, 4.02, 4.92, 5.75, 4.57, 0.0, -2.4, -2.4, -0.88, -0.84, -1.54, -4.92, -8.53, -9.23, -6.44, -3.47, -1.9, -1.79, -1.26, 0.0, 0.61, 2.2, 2.98, 3.07, 2.98, 1.84, 1.66, 1.98, 2.6, 2.0, 1.34, 0.0, 0.0, 0.0, 0.0, 0.0, -13.62, -13.62, -13.62, -13.62, -14.01, -13.75, -13.75, -13.75, -13.75, -13.85, -13.48, -13.48, -13.85, -13.58, -13.38, -13.09, -12.51, -12.16, -12.45, -11.87, -11.87, -11.52, -11.23, -10.88, -10.59, -10.01, -9.59, -9.3, -8.38, -7.8, -6.23, -4.94, -3.73, -3.35, -2.68, -1.86, -1.34, 0.0, 0.95, 1.86, 2.4, 3.39, 3.87, 4.34, 4.77, 5.75, 5.75, 4.8, 4.77, 4.34, 4.34, 4.88, 4.89, 4.88, 4.44, 4.11, 3.48, 3.49, 4.29, 3.47, 2.6, 1.8, 1.9, 2.98, 5.51, 5.81, 5.75, 3.72, 0.0, -2.4, -0.99, 0.0, 0.79, -0.75, -6.52, -9.22, -6.79, -3.6, -2.4, -2.68, -2.84, -1.9, -0.89, 0.53, 2.4, 3.55, 2.9, 1.52, 0.7, 0.7, 1.74, 1.9, 1.79, 1.34, 0.95, 0.8, 1.49, 1.49, -13.62, -13.62, -13.62, -13.62, -13.62, -13.75, -13.75, -13.75, -13.48, -13.85, -13.85, -13.48, -13.85, -13.58, -13.58, -13.09, -12.51, -12.51, -12.16, -12.45, -11.87, -11.87, -11.8, -11.23, -10.65, -10.23, -9.94, -9.02, -8.15, -7.81, -6.92, -5.65, -4.71, -3.73, -3.14, -2.5, -1.49, -0.45, 0.0, 1.2, 2.17, 3.07, 3.53, 4.3, 4.77, 5.29, 5.29, 4.44, 4.44, 4.43, 4.43, 4.44, 4.44, 4.88, 4.44, 4.44, 4.11, 3.49, 2.82, 2.47, 1.7, 0.98, 0.99, 4.22, 4.6, 4.8, 4.82, 4.24, 1.41, 0.0, 0.0, 0.99, 2.51, 3.14, 0.0, -6.28, -6.9, -4.0, -2.41, -2.97, -3.2, -2.86, -1.2, 0.0, 0.57, 1.76, 2.36, 1.52, 1.47, 1.41, 2.07, 2.53, 2.54, 2.12, 1.58, 1.74, 2.53, 2.53, -13.62, -13.62, -13.62, -13.62, -13.62, -13.75, -13.75, -13.75, -13.48, -13.85, -13.85, -13.85, -13.48, -13.58, -13.58, -13.09, -12.73, -12.51, -12.16, -12.16, -12.45, -11.87, -11.8, -11.23, -10.88, -10.59, -9.66, -9.02, -8.6, -7.55, -7.55, -6.59, -5.65, -4.37, -3.43, -2.79, -1.9, -0.6, 0.0, 0.89, 1.79, 2.68, 3.13, 3.58, 3.98, 3.98, 4.02, 4.02, 4.02, 4.02, 3.98, 3.98, 3.98, 3.98, 3.98, 4.47, 4.43, 4.11, 3.2, 2.4, 1.55, 0.98, 2.84, 3.83, 4.6, 4.19, 4.0, 3.58, 1.6, 1.55, 2.21, 1.79, 0.0, 1.18, 1.56, -1.57, -5.64, -5.06, -1.66, -0.99, -1.58, -0.85, 0.0, 0.0, 0.0, 0.0, 0.57, 1.84, 2.53, 2.3, 3.16, 2.84, 2.6, 2.68, 2.6, 2.21, 2.86, 2.86, -13.62, -13.62, -13.62, -13.62, -13.36, -13.75, -13.75, -13.75, -13.48, -13.85, -13.85, -13.85, -13.85, -13.85, -13.58, -13.09, -13.09, -12.51, -12.51, -12.16, -12.45, -11.87, -11.8, -11.8, -11.23, -10.65, -10.01, -9.37, -8.73, -8.65, -7.55, -7.51, -6.28, -5.35, -3.79, -3.16, -2.53, -1.24, 0.0, 0.6, 1.6, 2.17, 2.63, 3.13, 3.58, 3.58, 3.58, 3.58, 3.58, 3.58, 3.58, 3.98, 3.98, 4.02, 4.02, 4.02, 4.47, 4.02, 3.87, 3.43, 2.86, 3.6, 4.09, 4.22, 4.98, 4.54, 4.22, 2.98, 2.68, 2.84, 2.84, 1.58, -0.99, -3.15, -1.59, 0.0, -1.47, -1.79, 0.0, 0.81, 0.72, 0.0, 0.0, 0.0, 0.0, 0.0, 0.0, 0.89, 2.21, 2.84, 2.84, 2.86, 2.6, 2.68, 2.97, 2.98, 3.2, 3.2, -13.62, -13.62, -13.62, -13.62, -13.36, -13.75, -13.75, -13.48, -13.48, -13.85, -13.85, -13.85, -13.85, -13.58, -13.58, -13.09, -12.73, -12.51, -12.51, -12.16, -12.45, -11.87, -11.8, -11.8, -11.23, -10.65, -10.01, -9.66, -9.08, -7.86, -7.55, -7.51, -6.32, -5.69, -4.74, -3.49, -2.86, -1.61, -0.65, 0.0, 1.24, 1.9, 2.4, 2.91, 3.53, 3.53, 3.09, 3.07, 3.13, 3.13, 3.58, 3.58, 4.02, 4.02, 4.02, 4.02, 4.02, 4.47, 4.47, 4.43, 5.2, 4.8, 4.8, 4.8, 4.22, 4.22, 3.93, 3.6, 4.02, 3.6, 3.58, 3.48, 0.0, -4.92, -5.51, -1.56, 1.54, 2.4, 3.09, 2.06, 0.72, 0.0, 0.0, 0.0, 0.0, 0.0, 0.0, 0.61, 1.6, 2.54, 2.6, 2.6, 2.23, 2.24, 2.24, 3.2, 3.2, 3.2, -13.23, -13.23, -13.62, -13.62, -13.36, -13.75, -13.75, -13.48, -13.85, -13.85, -13.85, -13.85, -13.85, -13.58, -13.58, -13.01, -12.73, -12.51, -12.51, -12.16, -12.45, -11.87, -11.8, -11.44, -11.23, -10.65, -10.3, -9.72, -9.13, -8.5, -7.27, -6.95, -6.34, -5.71, -5.08, -3.84, -2.84, -1.76, -0.59, 0.0, 0.53, 1.88, 2.21, 2.53, 3.07, 3.07, 2.91, 2.91, 2.6, 2.68, 3.13, 3.58, 4.02, 4.02, 4.02, 4.47, 4.47, 4.47, 4.47, 4.88, 4.8, 5.01, 5.2, 5.2, 4.46, 4.09, 3.58, 3.6, 3.39, 3.58, 3.6, 3.79, 0.0, -1.64, -3.28, -0.78, 2.3, 4.76, 4.87, 2.39, 0.0, -0.68, -1.43, -1.4, -0.71, 0.0, 0.0, 0.0, 0.85, 1.79, 2.4, 2.54, 2.4, 1.79, 1.79, 1.58, 3.2, 3.2, -13.48, -13.48, -13.62, -13.62, -13.36, -13.75, -13.75, -13.48, -13.85, -13.85, -13.85, -13.85, -13.58, -13.21, -13.01, -13.01, -12.73, -12.51, -12.51, -12.16, -11.87, -11.52, -11.44, -11.23, -11.23, -10.65, -10.65, -10.06, -9.46, -8.53, -7.9, -6.97, -6.34, -5.72, -5.1, -4.1, -3.22, -2.18, -1.08, 0.0, 0.59, 1.13, 1.6, 2.23, 2.53, 2.79, 2.53, 2.5, 2.4, 2.63, 3.13, 3.58, 4.02, 4.02, 4.47, 4.47, 4.47, 4.44, 4.44, 4.47, 5.24, 4.0, 4.65, 4.6, 3.58, 3.72, 3.6, 3.6, 3.9, 4.02, 4.47, 3.93, 2.33, 1.6, 0.0, -0.79, 0.0, 2.35, 1.54, 0.69, 0.0, -0.72, -1.49, -1.52, -0.76, 0.0, 0.81, 0.88, 0.87, 1.9, 2.0, 2.24, 2.24, 2.24, 1.58, 1.49, 2.6, 2.6, -13.48, -13.48, -13.62, -13.62, -13.36, -13.75, -13.75, -13.48, -13.48, -13.85, -13.85, -13.85, -13.21, -13.01, -13.01, -13.01, -13.01, -12.51, -12.51, -12.16, -11.87, -11.8, -11.23, -10.88, -10.65, -10.65, -10.36, -10.09, -9.77, -9.13, -8.22, -7.3, -6.35, -5.72, -5.1, -4.46, -3.42, -2.32, -1.16, 0.0, 0.0, 0.57, 1.58, 2.76, 2.48, 2.23, 2.23, 2.53, 2.5, 2.91, 3.53, 3.53, 3.98, 3.98, 3.98, 4.43, 4.43, 4.43, 4.44, 4.47, 4.89, 4.6, 5.2, 4.22, 4.0, 4.66, 4.15, 4.82, 4.38, 4.02, 3.58, 4.0, 5.06, 3.6, 1.58, -1.55, -2.34, -2.37, -3.1, -2.85, -2.06, -0.67, -0.69, -0.7, 0.0, 0.0, 1.41, 2.2, 2.4, 1.7, 1.66, 1.8, 1.98, 2.21, 1.74, 1.4, 0.87, 1.4, -13.48, -13.48, -13.62, -13.62, -13.36, -13.75, -13.75, -13.48, -13.48, -13.48, -13.48, -13.48, -13.21, -13.01, -13.01, -13.01, -13.01, -12.73, -12.51, -12.16, -11.87, -11.23, -10.88, -10.65, -10.65, -10.36, -10.36, -10.09, -9.77, -9.13, -8.53, -7.6, -6.69, -6.35, -5.09, -4.71, -3.4, -2.29, -1.67, -0.54, 0.0, 0.55, 1.57, 2.6, 2.84, 2.86, 2.23, 2.51, 3.14, 3.14, 3.2, 3.82, 3.82, 3.87, 3.98, 3.98, 4.3, 4.3, 4.3, 4.44, 4.47, 4.8, 5.64, 3.83, 4.15, 4.8, 5.2, 4.82, 4.47, 4.02, 3.58, 4.02, 3.79, 3.25, 3.13, 1.51, -1.56, -4.68, -5.71, -5.11, -3.53, -2.06, -0.71, 0.0, 0.79, 2.3, 2.88, 3.0, 3.09, 3.09, 2.26, 1.63, 1.7, 1.8, 1.6, 1.6, 0.7, 0.87, -13.23, -13.23, -13.23, -13.62, -13.36, -13.36, -13.75, -13.48, -13.48, -13.48, -13.48, -13.21, -13.58, -13.58, -13.38, -13.01, -13.01, -13.01, -12.16, -11.92, -11.52, -11.23, -10.88, -10.65, -10.65, -10.36, -10.36, -10.09, -9.77, -9.17, -8.53, -7.93, -6.98, -6.35, -5.72, -4.69, -3.6, -2.96, -1.65, -1.14, 0.0, 0.0, 1.19, 2.4, 3.33, 2.82, 2.86, 2.86, 2.86, 3.16, 3.35, 3.35, 3.6, 3.6, 3.87, 3.87, 3.87, 4.3, 4.3, 4.3, 4.47, 4.89, 4.3, 4.8, 4.8, 4.8, 4.57, 4.38, 4.47, 4.47, 4.02, 3.13, 1.8, 2.66, 4.65, 6.4, 3.19, -1.52, -4.6, -5.13, -3.69, -2.2, 0.0, 1.41, 2.2, 2.9, 3.6, 3.06, 3.06, 3.06, 2.35, 2.31, 1.73, 1.55, 0.98, 0.87, 0.76, 0.7, -13.48, -13.48, -13.23, -13.62, -13.62, -13.36, -13.36, -13.36, -13.48, -13.48, -13.48, -13.58, -13.58, -13.58, -13.38, -13.01, -13.01, -13.01, -12.16, -11.87, -11.28, -11.23, -10.65, -10.65, -10.36, -10.36, -10.09, -10.09, -9.48, -9.17, -8.85, -7.93, -7.32, -6.63, -5.72, -4.69, -3.81, -2.92, -1.63, -1.12, -0.57, 0.0, 0.53, 1.7, 1.84, 2.51, 2.82, 2.84, 2.86, 3.15, 2.86, 2.84, 3.35, 3.35, 3.6, 3.6, 3.7, 3.87, 4.3, 3.87, 3.98, 4.89, 6.58, 5.64, 4.77, 4.66, 4.15, 4.77, 4.47, 4.47, 4.02, 3.13, 2.21, 1.8, 2.49, 5.64, 4.93, 2.35, -0.98, -2.12, -1.58, 0.0, 2.12, 2.9, 3.61, 2.89, 3.02, 2.31, 2.39, 2.28, 2.35, 2.31, 1.63, 1.83, 0.87, 0.99, 0.99, 0.99, -13.48, -13.48, -13.23, -13.23, -13.62, -13.36, -13.36, -13.36, -13.48, -13.48, -13.58, -13.58, -13.58, -13.58, -13.01, -13.01, -12.45, -12.45, -12.45, -11.87, -11.28, -11.23, -10.65, -10.65, -10.36, -10.09, -10.09, -9.48, -9.48, -8.87, -8.56, -7.95, -7.61, -6.7, -5.72, -4.66, -4.03, -2.89, -2.23, -1.18, -0.56, 0.0, 0.57, 1.14, 1.14, 1.67, 2.32, 2.82, 2.84, 2.44, 2.22, 2.86, 2.84, 2.84, 3.14, 3.35, 3.6, 3.7, 4.11, 4.11, 3.98, 4.92, 5.24, 5.7, 5.2, 4.66, 4.77, 4.77, 4.47, 4.47, 4.02, 3.58, 3.13, 1.2, 0.0, 0.0, 1.63, 3.19, 3.32, 2.8, 2.88, 4.8, 5.2, 4.24, 3.47, 2.34, 2.31, 1.5, 1.47, 1.58, 2.26, 2.47, 2.53, 1.98, 1.0, 1.26, 1.26, 1.26, -13.48, -13.48, -13.23, -13.09, -13.09, -13.2, -13.2, -13.36, -13.48, -13.48, -13.58, -13.58, -13.58, -13.01, -13.01, -12.45, -12.09, -12.09, -11.87, -11.52, -11.28, -10.94, -10.65, -10.65, -10.09, -9.77, -9.48, -9.48, -9.48, -8.87, -8.56, -7.95, -7.61, -6.34, -5.7, -4.66, -4.0, -2.86, -2.37, -1.16, -0.55, 0.0, 0.56, 0.56, 1.12, 1.14, 1.67, 1.67, 2.36, 2.4, 2.44, 2.22, 2.48, 2.51, 2.84, 3.14, 3.35, 3.6, 4.11, 4.11, 4.3, 4.47, 5.34, 6.61, 5.2, 4.77, 5.2, 5.2, 4.85, 4.38, 3.9, 3.58, 2.68, 1.2, 0.0, -0.82, 0.0, 2.31, 4.76, 6.4, 8.72, 8.68, 7.2, 5.1, 3.53, 2.19, 1.5, 1.52, 1.63, 1.7, 2.68, 2.98, 2.6, 1.26, 1.34, 0.0, 0.0, 0.0, -13.34, -13.34, -13.09, -13.09, -13.09, -12.82, -13.2, -13.2, -13.48, -13.48, -13.01, -13.01, -13.01, -12.65, -12.45, -12.09, -12.09, -11.87, -11.87, -11.28, -10.94, -10.69, -10.36, -10.36, -9.77, -9.77, -9.48, -9.48, -9.48, -8.87, -8.24, -7.61, -6.98, -6.34, -5.29, -4.63, -3.97, -3.01, -2.33, -1.69, -0.54, 0.0, 0.0, 0.59, 0.56, 1.12, 1.23, 1.67, 1.67, 1.7, 1.88, 1.73, 2.22, 2.48, 2.51, 3.14, 3.35, 3.72, 4.11, 4.11, 4.11, 4.3, 5.36, 6.16, 6.58, 4.77, 4.77, 5.09, 5.09, 4.57, 4.66, 3.58, 2.68, 1.2, 0.0, 0.0, 0.84, 2.34, 3.91, 7.93, 10.59, 10.65, 7.8, 5.02, 3.53, 2.82, 2.12, 1.6, 1.74, 2.68, 3.13, 2.68, 2.24, 1.34, -0.0, -0.0, -0.0, -0.0, -12.95, -12.95, -13.09, -13.09, -13.09, -13.09, -13.2, -13.2, -12.93, -13.3, -13.3, -12.65, -12.65, -12.45, -12.09, -12.09, -11.87, -11.87, -11.52, -11.52, -10.94, -10.36, -10.36, -10.09, -9.77, -9.77, -9.48, -9.19, -8.87, -8.24, -7.95, -6.97, -6.61, -5.95, -5.29, -4.63, -3.97, -2.83, -2.3, -1.67, -1.14, -0.54, 0.0, 0.0, 0.59, 0.56, 1.12, 1.12, 1.23, 1.67, 1.7, 1.7, 1.73, 2.44, 2.48, 2.84, 2.84, 3.72, 3.72, 3.88, 3.88, 4.11, 5.36, 6.23, 5.7, 5.2, 4.77, 4.15, 4.22, 4.6, 4.0, 3.47, 3.13, 2.4, 2.21, 1.8, 1.6, 2.47, 4.17, 7.12, 9.89, 9.67, 6.47, 4.37, 3.53, 2.89, 2.2, 1.58, 1.58, 2.21, 3.2, 2.97, 2.4, 1.2, -0.0, -0.0, -0.0, -0.0, -12.95, -12.95, -12.7, -13.09, -12.7, -13.09, -12.82, -13.2, -12.93, -12.93, -12.93, -12.93, -12.45, -12.45, -12.09, -12.09, -11.87, -11.52, -11.52, -11.28, -10.69, -10.36, -10.36, -10.09, -10.09, -10.09, -9.48, -8.87, -8.56, -7.95, -7.33, -6.71, -6.08, -5.69, -5.04, -4.6, -3.94, -3.3, -2.83, -1.75, -1.12, -0.57, 0.0, 0.0, 0.0, 0.56, 0.56, 1.2, 1.12, 1.65, 1.67, 1.67, 1.7, 1.73, 2.22, 2.48, 3.16, 3.43, 3.72, 3.88, 3.88, 4.11, 4.89, 6.23, 6.16, 5.81, 4.92, 4.24, 4.24, 2.98, 3.6, 3.47, 3.13, 2.97, 2.21, 1.98, 1.99, 3.27, 4.71, 6.42, 7.36, 7.11, 6.31, 5.81, 4.94, 2.99, 0.8, -0.0, -0.0, 1.98, 2.53, 2.98, 1.74, 0.99, -0.0, -0.0, -0.0, -0.0, -12.95, -12.95, -12.95, -12.7, -12.7, -12.7, -12.82, -12.82, -12.56, -12.93, -12.73, -12.73, -12.37, -12.37, -12.09, -11.87, -11.52, -11.52, -11.23, -11.23, -10.69, -10.69, -10.69, -10.69, -10.09, -9.77, -9.17, -8.56, -7.95, -7.33, -6.71, -6.33, -5.69, -5.69, -5.04, -4.6, -3.94, -3.45, -2.8, -2.3, -1.67, -1.14, -0.57, 0.0, 0.0, 0.0, 0.56, 0.56, 1.1, 1.2, 1.12, 1.8, 1.67, 1.7, 2.44, 2.22, 2.86, 3.16, 3.43, 3.72, 3.88, 4.52, 4.88, 5.78, 6.16, 6.61, 5.81, 4.92, 4.02, 2.97, 2.97, 3.47, 3.58, 3.58, 3.9, 3.58, 3.79, 4.58, 5.89, 6.64, 5.64, 6.21, 7.71, 7.84, 5.6, 3.07, -0.0, -0.0, 1.0, 1.6, 2.68, 2.84, 1.74, 0.99, -0.0, -0.0, -0.0, -0.0, -12.95, -12.95, -12.42, -12.54, -12.54, -12.54, -12.27, -12.65, -12.37, -12.37, -12.37, -12.37, -12.37, -12.37, -12.16, -11.52, -11.52, -11.23, -11.23, -10.88, -10.36, -10.69, -10.4, -10.4, -10.09, -9.17, -8.56, -7.95, -7.33, -6.97, -6.71, -6.33, -5.92, -5.69, -5.26, -4.6, -3.94, -3.45, -2.8, -2.3, -1.75, -1.12, -0.57, 0.0, 0.0, 0.0, 0.59, 0.59, 0.56, 1.1, 1.2, 1.12, 1.23, 1.67, 1.88, 1.94, 2.22, 2.48, 3.16, 3.43, 3.88, 4.27, 4.77, 5.34, 5.99, 6.02, 5.81, 5.36, 4.47, 4.02, 3.13, 2.68, 3.58, 4.02, 4.38, 4.57, 4.19, 4.89, 5.77, 6.01, 5.49, 5.9, 7.24, 7.69, 4.92, 2.41, 0.99, 1.79, 1.79, 2.0, 2.53, 2.84, 2.21, 1.2, -0.0, -0.0, -0.0, -0.0, -12.42, -12.42, -12.42, -12.16, -12.54, -12.54, -12.27, -12.27, -12.27, -12.37, -12.37, -12.37, -11.8, -11.8, -11.8, -11.58, -10.94, -10.94, -11.23, -10.69, -10.69, -10.69, -10.69, -10.09, -9.48, -8.56, -7.95, -7.61, -7.33, -6.97, -6.97, -6.33, -5.92, -5.69, -5.26, -4.6, -3.94, -3.45, -2.8, -2.28, -1.75, -1.12, -1.12, -0.57, 0.0, 0.0, 0.0, 0.59, 0.59, 0.59, 0.56, 1.2, 1.12, 1.14, 1.7, 1.73, 1.94, 2.22, 2.48, 2.84, 3.72, 4.27, 4.11, 4.92, 5.4, 6.16, 5.75, 5.81, 5.81, 5.29, 4.38, 3.13, 2.68, 3.58, 4.02, 4.38, 4.6, 4.19, 4.43, 5.06, 4.83, 4.83, 5.49, 4.68, 3.19, 1.0, 2.84, 2.24, 1.26, 1.26, 2.54, 2.23, 0.8, -0.0, -0.0, -0.0, -0.0, -0.0, -12.42, -12.42, -12.42, -12.16, -12.16, -12.16, -11.9, -12.27, -12.09, -11.8, -11.8, -11.8, -11.8, -11.58, -11.23, -10.94, -10.94, -10.94, -10.94, -10.69, -10.69, -10.36, -9.77, -9.17, -8.87, -8.56, -7.95, -7.61, -7.61, -6.97, -6.97, -6.33, -5.92, -5.69, -5.26, -4.6, -3.94, -3.45, -2.8, -2.28, -1.65, -1.18, -1.12, -0.57, 0.0, 0.0, 0.0, 0.0, 0.0, 0.59, 0.56, 0.56, 1.12, 1.14, 1.14, 1.7, 1.73, 1.73, 2.22, 2.84, 3.35, 3.72, 3.88, 4.47, 5.09, 5.08, 5.6, 5.75, 5.81, 5.81, 5.29, 4.57, 3.9, 3.58, 4.02, 4.38, 4.22, 3.48, 3.48, 3.63, 3.33, 4.16, 3.4, 2.39, -0.71, 2.54, 4.22, 2.68, 0.0, 0.0, 0.95, 0.95, -0.0, -0.0, -0.0, -0.0, -0.0, -0.0, -11.88, -11.88, -11.88, -11.62, -11.62, -11.62, -11.99, -11.72, -11.72, -11.72, -11.23, -11.23, -11.23, -11.23, -10.94, -10.94, -10.94, -10.94, -10.94, -10.69, -10.36, -9.77, -9.46, -8.85, -8.56, -8.24, -8.24, -8.24, -7.61, -7.24, -6.97, -6.33, -5.92, -5.26, -5.26, -4.6, -3.94, -3.45, -2.8, -2.28, -1.65, -1.18, -1.12, -0.56, 0.0, 0.0, 0.0, 0.0, 0.0, 0.55, 0.59, 0.56, 0.61, 1.14, 1.14, 1.14, 1.16, 1.07, 1.76, 2.23, 2.84, 3.35, 3.72, 3.87, 4.43, 4.55, 4.81, 5.2, 5.29, 4.92, 4.92, 4.85, 4.57, 4.38, 4.02, 3.9, 3.93, 3.48, 2.95, 2.53, 2.76, 3.33, 3.4, 0.0, -0.74, 3.47, 4.8, 3.58, 0.0, -1.49, -1.4, -0.8, -1.34, -0.0, -0.0, -0.0, -0.0, -0.0, -11.88, -11.88, -11.88, -11.62, -11.62, -11.44, -11.44, -11.16, -11.16, -11.16, -10.88, -11.23, -11.23, -10.94, -11.28, -11.28, -11.28, -11.28, -10.94, -10.36, -10.06, -9.72, -8.85, -8.85, -8.24, -8.24, -8.24, -7.96, -7.33, -7.24, -6.97, -6.33, -5.92, -5.26, -4.6, -4.6, -3.94, -3.45, -2.8, -2.28, -1.73, -1.11, -0.56, 0.0, 0.0, 0.0, 0.0, 0.0, 0.0, 0.0, 0.59, 0.56, 0.57, 0.57, 0.58, 1.14, 1.14, 1.16, 1.19, 1.76, 2.51, 2.84, 3.35, 3.6, 3.53, 4.11, 4.07, 3.78, 4.6, 4.82, 4.47, 4.02, 3.9, 4.34, 3.9, 3.9, 4.15, 3.93, 2.95, 2.68, 2.95, 2.6, 1.56, 0.0, 0.0, 3.45, 4.8, 3.95, 1.9, -0.88, -2.2, -2.21, -2.0, -1.79, 0.0, -0.0, -0.0, -0.0, -11.5, -11.5, -11.34, -11.07, -11.07, -11.07, -11.07, -10.8, -10.8, -10.94, -10.65, -11.23, -10.94, -11.28, -11.28, -11.28, -11.28, -10.94, -10.36, -10.3, -9.72, -9.13, -8.85, -8.24, -8.24, -8.24, -7.96, -7.96, -7.33, -6.96, -6.31, -6.33, -5.92, -5.26, -4.8, -4.12, -4.12, -3.45, -2.93, -2.28, -1.73, -1.11, -0.59, 0.0, 0.0, 0.0, 0.0, 0.0, 0.0, 0.0, 0.55, 0.56, 0.57, 0.57, 0.58, 0.58, 1.14, 1.14, 1.16, 1.73, 1.8, 2.51, 2.84, 3.14, 3.2, 3.58, 3.6, 3.88, 4.6, 4.15, 3.9, 3.58, 3.58, 3.47, 3.39, 2.97, 3.9, 3.6, 2.84, 2.68, 1.8, 1.66, 1.6, 1.63, 0.0, 2.53, 3.93, 3.58, 2.15, -0.0, -2.2, -2.86, -2.68, -2.24, -1.34, -0.0, -0.0, -0.0, -10.96, -10.96, -10.96, -10.96, -10.51, -10.51, -10.51, -10.59, -10.59, -10.3, -10.65, -10.94, -11.28, -11.28, -10.99, -11.28, -10.94, -10.69, -10.36, -9.72, -9.13, -9.42, -8.53, -8.24, -8.24, -8.24, -8.24, -7.61, -7.33, -6.7, -6.31, -5.67, -5.67, -5.02, -4.57, -3.91, -4.12, -3.45, -2.93, -2.28, -1.73, -1.11, -0.56, -0.56, 0.0, 0.0, 0.0, 0.0, 0.0, 0.0, 0.0, 0.56, 0.57, 0.57, 0.58, 0.58, 0.58, 1.14, 1.14, 1.07, 1.76, 2.23, 2.51, 2.84, 2.79, 3.07, 3.53, 3.53, 3.6, 4.15, 4.38, 4.02, 3.58, 3.47, 3.39, 2.97, 2.68, 2.97, 2.21, 1.98, 1.98, 0.0, 0.0, 0.78, 0.0, -0.0, 2.41, 2.41, 2.15, -0.0, -1.49, -2.53, -2.0, -2.24, -1.79, 0.0, 0.0, 0.0, -10.96, -10.96, -10.79, -10.79, -10.51, -10.51, -10.51, -10.23, -10.59, -10.65, -11.23, -10.94, -11.28, -10.99, -10.99, -11.28, -10.69, -10.36, -10.06, -9.46, -9.13, -8.82, -8.53, -8.85, -7.95, -7.95, -7.61, -7.61, -6.97, -6.97, -6.31, -5.67, -5.67, -5.02, -4.57, -3.91, -3.42, -2.77, -2.39, -1.73, -1.73, -1.11, -0.59, -0.56, -0.56, 0.0, 0.0, 0.0, 0.0, 0.0, 0.0, 0.61, 0.57, 0.57, 0.58, 0.58, 0.58, 0.58, 1.14, 1.16, 1.19, 1.76, 2.23, 2.51, 2.79, 2.79, 3.07, 3.39, 3.58, 4.47, 4.38, 4.47, 4.02, 3.9, 3.47, 2.97, 2.68, 2.68, 2.4, 1.9, 0.0, 0.0, -0.82, -0.77, -0.84, -2.24, 0.87, 1.6, 1.4, 0.71, -0.0, -1.49, -1.79, -2.0, -2.24, -1.34, -1.34, -1.34, -10.41, -10.41, -10.41, -10.15, -10.15, -10.51, -10.51, -10.59, -10.94, -10.88, -10.94, -11.28, -11.28, -10.99, -10.72, -10.69, -10.36, -9.77, -9.46, -9.13, -8.85, -8.85, -8.85, -8.24, -7.95, -7.61, -7.33, -6.97, -6.97, -6.58, -6.33, -5.67, -5.67, -5.02, -4.57, -3.91, -3.42, -2.93, -2.39, -2.28, -1.73, -1.11, -1.18, -1.12, -0.56, -0.57, -0.57, 0.0, 0.0, 0.0, 0.0, 0.0, 0.0, 0.57, 0.58, 0.58, 0.53, 0.58, 1.14, 1.16, 1.07, 1.76, 1.76, 2.23, 2.51, 2.53, 3.07, 3.07, 3.2, 4.38, 4.47, 4.47, 4.02, 3.58, 3.39, 2.97, 2.4, 2.68, 2.24, 1.2, 0.0, -0.98, -1.6, -1.67, -1.62, -2.76, -1.2, 0.87, 0.85, -0.0, -0.89, -1.34, -1.79, -2.4, -2.4, -1.79, -1.79, -1.79, -10.41, -10.41, -10.41, -10.15, -10.15, -10.51, -10.23, -10.59, -10.88, -11.23, -10.94, -11.28, -11.28, -10.69, -10.69, -10.36, -9.77, -9.72, -9.46, -9.13, -8.85, -8.85, -8.85, -8.53, -8.24, -7.61, -7.33, -6.97, -6.97, -6.33, -6.33, -5.92, -5.69, -5.26, -4.6, -4.12, -3.45, -2.93, -2.8, -2.28, -1.65, -1.75, -1.18, -1.12, -1.2, -0.57, -0.54, 0.0, 0.0, 0.0, 0.0, 0.0, 0.0, 0.0, 0.58, 0.58, 0.53, 0.59, 1.14, 1.14, 1.16, 1.19, 1.76, 1.76, 2.23, 2.23, 2.53, 2.79, 2.79, 3.32, 3.13, 4.02, 3.47, 3.13, 3.13, 2.97, 2.4, 2.4, 2.0, 1.2, 0.0, -0.98, -1.6, -1.67, -1.58, -2.44, -2.97, -0.0, -0.0, -1.26, -1.34, -1.79, -1.79, -2.0, -2.0, -2.0, -2.0, -2.0, -10.41, -10.41, -10.41, -10.51, -10.51, -10.51, -10.59, -11.16, -10.88, -11.23, -10.94, -10.94, -10.69, -10.69, -10.09, -10.09, -9.77, -9.46, -9.46, -8.85, -8.85, -8.85, -8.85, -8.53, -8.24, -7.61, -7.61, -6.97, -6.71, -6.33, -6.33, -5.69, -5.69, -5.04, -4.6, -3.94, -3.45, -3.3, -2.97, -2.83, -2.3, -2.3, -1.67, -1.78, -1.14, -1.14, -0.58, -0.55, 0.0, 0.0, 0.0, 0.0, 0.0, 0.0, 0.0, 0.58, 0.59, 0.59, 1.16, 1.16, 1.16, 1.07, 1.73, 1.76, 1.76, 1.8, 2.23, 2.53, 2.53, 2.5, 3.07, 3.58, 2.97, 3.13, 2.68, 2.4, 2.4, 2.0, 1.58, 0.0, 0.0, -0.88, -1.72, -1.67, -1.58, -0.8, -1.73, -2.4, -0.95, -0.95, -1.79, -1.79, -1.79, -2.0, -1.58, -1.58, -1.58, -1.58, -10.41, -10.41, -10.79, -10.51, -10.51, -10.59, -10.8, -11.16, -10.88, -10.88, -10.65, -10.36, -10.36, -10.09, -10.09, -9.77, -9.17, -9.46, -9.46, -9.46, -8.87, -8.56, -8.56, -8.24, -8.24, -7.61, -7.61, -7.26, -6.71, -6.33, -6.33, -5.69, -5.69, -5.29, -4.63, -4.16, -3.97, -3.49, -3.49, -2.83, -2.83, -2.33, -2.33, -2.33, -1.69, -1.71, -1.09, -0.59, 0.0, 0.0, 0.0, 0.0, 0.0, 0.0, 0.0, 0.0, 0.59, 0.59, 0.59, 0.59, 1.16, 1.07, 1.19, 1.23, 1.76, 1.8, 1.84, 1.88, 2.21, 2.21, 2.4, 2.68, 2.17, 3.13, 2.24, 2.24, 1.79, 1.26, 1.26, 0.0, 0.0, -0.88, -1.6, -1.58, -0.82, 0.0, 0.0, 0.0, 0.0, 0.0, 0.0, -0.99, -0.76, -0.87, -0.87, -1.13, -1.13, -1.13, -10.41, -10.41, -10.79, -10.51, -10.51, -10.59, -10.8, -11.16, -10.88, -10.88, -10.65, -10.36, -10.36, -10.09, -10.09, -9.77, -9.17, -9.46, -9.46, -9.46, -8.87, -8.56, -8.56, -8.24, -8.24, -7.61, -7.61, -7.26, -6.71, -6.33, -6.33, -5.69, -5.69, -5.29, -4.63, -4.16, -3.97, -3.49, -3.49, -2.83, -2.83, -2.33, -2.33, -2.33, -1.69, -1.71, -1.09, -0.59, 0.0, 0.0, 0.0, 0.0, 0.0, 0.0, 0.0, 0.0, 0.59, 0.59, 0.59, 0.59, 1.16, 1.07, 1.19, 1.23, 1.76, 1.8, 1.84, 1.88, 2.21, 2.21, 2.4, 2.68, 2.17, 3.13, 2.24, 2.24, 1.79, 1.26, 1.26, 0.0, 0.0, -0.98, -0.82, -0.89, 0.0, 0.0, 0.78, 1.64, 0.79, 0.78, 0.81, 0.8, 0.0, 0.0, 0.0, 0.0, 0.0, 0.0]}]